GFSFLT1_sfc_thetae_000.txt.gz
Theta_e
321 320 321 323 327 332 332 326 324 327 329 327 324 322 323 321 320 319 319 319 320 321 321 322 323 322 320 319 320 319 317 315
316 316 318 322 328 329 328 325 320 322 321 317 317 316 317 318 318 318 319 318 318 318 318 319 320 319 320 321 319 318 317 316
313 316 318 319 322 323 319 317 317 316 318 317 317 316 316 317 317 317 317 315 315 314 315 315 316 315 317 318 318 316 317 317
312 314 316 318 317 317 316 316 316 316 316 315 316 317 315 313 313 312 312 313 312 313 313 314 314 314 312 314 315 314 311 315
311 311 313 314 316 317 316 315 314 313 314 313 312 310 309 310 311 311 311 311 311 311 311 312 312 312 311 311 310 311 311 309
310 311 312 313 315 315 315 314 314 313 312 312 311 311 310 311 310 309 308 309 310 309 310 310 310 310 310 310 310 310 310 309
310 312 312 313 315 315 314 313 311 312 312 311 310 310 310 308 307 306 306 306 307 308 308 309 309 308 307 307 307 306 306 305
309 310 311 312 312 312 311 311 310 311 311 308 309 309 309 307 306 305 304 304 304 306 307 306 306 306 305 306 306 304 300 299
309 309 310 311 311 311 311 309 308 309 308 307 308 309 309 307 306 304 303 303 304 306 305 305 305 305 305 305 301 298 300 299
308 309 310 310 310 309 311 310 309 309 309 310 309 309 307 305 304 304 303 304 303 304 304 303 301 301 301 300 298 297 297 296
308 309 308 309 311 311 312 312 310 310 309 308 307 306 305 303 302 302 302 303 303 302 300 299 299 299 300 299 297 296 295 295
309 309 310 310 311 311 310 310 309 308 307 306 305 304 302 301 301 301 301 302 300 299 299 298 298 296 296 295 295 295 294 293
308 309 309 309 309 309 309 308 306 305 303 302 302 302 301 300 300 300 300 299 299 299 297 296 296 295 294 293 293 293 292 291
307 308 308 307 306 305 303 302 302 302 301 301 300 301 300 299 299 298 298 297 296 296 296 295 294 294 294 293 292 292 292 292
306 305 305 303 301 301 302 302 301 301 300 299 299 299 299 298 297 296 296 296 295 295 294 293 293 292 291 291 291 291 290 290
303 303 302 302 301 302 302 301 300 300 299 298 296 296 296 296 295 294 294 293 292 291 291 291 291 290 289 289 289 289 289 289
300 297 297 299 299 301 301 299 299 299 297 295 294 295 294 293 293 292 291 291 290 290 290 289 289 288 286 286 286 287 287 287
296 296 298 299 300 302 299 298 299 298 295 294 294 294 292 292 291 290 289 289 290 289 289 289 288 288 284 283 283 285 285 286
297 298 297 300 302 301 299 298 297 296 294 294 294 292 290 290 289 289 289 289 288 288 288 287 287 286 283 282 281 284 285 285

GFSFLT1_sfc_thetae_003.txt.gz
Theta_e
323 326 326 327 327 328 330 331 324 325 327 327 323 323 322 322 321 321 322 322 323 323 322 325 325 323 324 324 326 323 323 321
324 322 323 325 327 328 328 326 326 324 322 319 318 317 318 320 320 321 321 321 319 319 318 320 321 320 323 324 322 321 320 322
317 319 321 322 326 327 326 323 320 319 320 318 319 318 318 318 319 318 318 318 317 316 316 315 317 315 319 320 321 318 318 320
315 317 320 322 322 321 320 319 318 318 318 317 317 317 317 315 315 315 316 317 314 314 314 314 316 316 314 317 316 316 312 315
313 315 316 319 319 319 318 317 316 315 316 315 314 312 310 313 314 314 313 314 312 311 311 312 314 314 314 314 311 314 312 308
313 314 315 316 318 318 318 317 315 315 314 314 313 313 314 314 314 313 312 312 311 310 310 310 311 310 311 312 311 308 307 307
313 314 315 315 317 317 317 315 313 314 313 314 314 312 311 309 309 307 307 308 308 309 307 309 310 310 308 307 307 307 304 304
311 312 313 314 314 314 314 313 313 315 315 313 311 310 310 309 308 307 305 304 305 306 307 307 306 306 306 307 305 302 299 296
311 312 313 313 313 314 315 314 312 313 313 312 312 311 310 308 307 305 304 304 305 306 305 306 305 305 304 304 302 302 300 299
310 311 312 313 313 314 314 313 313 313 313 312 311 309 308 306 305 304 304 305 303 304 304 303 303 302 301 301 299 298 299 298
310 312 312 313 313 314 314 313 312 312 312 310 307 307 306 305 304 303 303 303 303 303 302 301 300 299 299 297 297 298 296 297
310 311 311 312 313 313 312 312 310 309 308 306 305 305 304 303 302 302 302 302 301 300 299 298 297 296 296 296 296 295 295 295
310 309 309 309 309 310 310 310 306 306 304 304 303 303 303 302 301 300 300 300 299 299 297 296 296 296 295 295 294 293 293 292
308 308 309 309 308 308 307 306 304 304 303 302 301 301 300 300 299 298 298 297 297 297 296 295 294 294 293 293 292 292 292 291
306 305 305 305 304 303 304 305 305 304 302 300 299 299 298 298 297 296 296 295 294 293 292 292 292 291 291 291 291 290 289 290
304 303 303 302 302 303 303 304 303 303 301 300 298 297 297 296 295 294 294 293 292 292 291 291 291 291 289 289 289 288 287 288
302 301 301 300 300 300 302 303 302 302 300 299 297 296 296 295 294 293 292 291 291 291 291 290 290 289 285 285 285 285 285 285
301 300 300 300 300 300 300 301 301 299 299 298 296 295 295 293 292 291 290 290 291 290 290 290 289 289 284 283 283 284 283 284
299 299 299 298 299 300 301 301 300 299 297 296 296 295 294 293 291 290 290 290 290 289 289 289 288 287 285 283 282 283 283 283

GFSFLT1_sfc_thetae_006.txt.gz
Theta_e
320 321 323 327 327 327 331 326 322 325 326 325 322 321 321 322 321 320 321 320 320 319 318 319 321 318 316 316 317 315 314 314
322 324 325 325 327 326 325 326 326 324 323 319 317 316 317 318 318 319 318 318 317 315 314 315 314 313 313 313 311 310 310 312
318 320 323 326 325 325 324 323 320 318 317 318 317 317 316 317 318 316 317 316 315 312 313 312 311 310 309 310 310 308 307 308
315 318 319 321 320 319 317 316 315 316 318 315 314 314 313 312 312 313 314 314 313 312 311 312 311 308 306 306 307 305 303 304
314 315 316 316 317 318 316 316 315 315 316 314 312 310 310 313 314 313 313 312 311 309 309 309 308 307 305 306 306 305 303 300
312 313 314 315 317 318 318 316 315 315 314 313 312 313 312 312 311 310 309 309 308 308 306 305 306 305 305 305 303 302 302 299
312 314 315 315 317 317 316 314 313 314 314 315 312 309 309 308 307 306 304 304 304 305 306 305 305 304 303 303 301 300 297 297
312 312 312 313 315 316 315 315 313 314 313 311 311 310 309 307 305 303 302 301 302 302 303 303 303 302 303 303 302 300 298 295
311 312 312 313 314 315 315 313 312 312 313 312 311 309 306 305 304 302 301 301 301 302 302 302 301 300 299 299 297 298 296 296
310 312 312 313 313 314 314 313 312 312 313 311 307 306 305 304 303 303 301 302 301 300 300 299 299 299 298 296 295 294 294 294
311 310 312 312 312 313 314 313 310 309 306 304 304 304 305 304 303 301 300 300 299 299 298 298 298 297 297 296 294 295 294 294
309 309 310 311 311 311 310 308 306 306 305 304 304 303 303 302 301 299 298 298 297 296 297 296 296 295 295 295 293 294 292 291
308 308 308 308 307 308 307 307 306 305 304 303 302 302 300 299 299 297 297 296 296 295 295 294 294 294 294 293 292 292 291 290
307 306 306 306 305 305 304 305 305 305 304 302 301 299 298 297 296 296 296 295 295 294 292 291 290 290 289 289 289 289 287 286
305 305 304 303 302 302 303 302 304 304 302 301 299 298 296 295 295 294 294 293 292 291 291 291 290 290 289 288 288 286 286 285
303 302 302 301 301 301 301 301 303 303 301 300 299 298 296 296 295 294 293 292 291 290 290 289 289 289 287 285 285 284 283 283
300 301 300 299 299 299 298 299 300 303 300 299 299 298 296 295 294 293 292 291 290 289 289 288 288 288 285 284 283 281 282 282
299 299 299 298 296 297 296 297 299 299 298 298 298 296 295 295 294 292 290 289 289 288 288 288 287 286 286 285 283 281 280 280
298 297 297 297 297 296 296 296 295 296 296 297 297 296 295 294 293 292 290 289 288 287 287 287 285 286 286 286 283 280 279 279

GFSFLT1_sfc_thetae_009.txt.gz
Theta_e
315 316 320 321 323 325 320 324 321 319 320 317 314 313 313 313 312 312 313 312 312 310 309 310 310 309 308 308 307 308 307 307
317 318 319 320 322 321 320 319 318 317 312 311 310 309 310 310 310 312 311 310 310 309 307 308 307 306 305 305 305 304 304 305
314 313 312 313 315 315 313 312 312 311 310 310 310 310 309 308 309 310 311 310 309 309 306 306 306 304 303 302 302 301 301 302
311 311 309 310 309 308 309 308 309 310 310 308 307 306 306 307 308 309 310 310 307 305 304 303 303 303 301 300 301 300 298 299
310 309 307 308 307 307 308 309 308 310 309 307 305 304 304 307 307 306 307 305 304 304 303 302 302 301 300 300 303 299 298 296
307 307 308 308 308 307 307 308 308 309 307 306 306 305 305 305 305 301 300 301 302 302 302 301 300 301 300 299 298 297 296 295
306 308 309 307 307 307 307 307 307 308 307 308 305 303 303 301 300 298 299 299 300 300 301 300 300 299 298 298 298 295 294 297
304 307 307 306 306 306 307 307 307 308 306 305 303 301 300 299 298 297 298 300 297 297 298 297 297 297 297 296 295 295 294 293
303 304 305 306 308 306 307 307 307 307 306 303 302 301 300 302 301 300 298 296 296 296 297 297 297 296 295 294 293 293 295 294
303 308 308 307 307 306 306 306 305 303 301 301 301 302 303 301 300 297 296 296 297 295 295 295 295 295 297 296 294 294 293 292
304 304 304 304 304 304 303 303 302 302 300 302 302 301 301 299 296 294 294 294 294 294 293 293 293 294 294 293 291 291 291 290
302 302 303 303 303 303 302 302 302 300 300 302 300 299 297 296 295 294 294 293 293 293 293 293 292 292 291 291 291 290 290 290
301 302 301 300 300 300 299 299 300 300 300 299 298 297 295 294 293 293 292 292 293 292 291 289 289 288 287 287 287 287 285 284
300 300 300 299 298 298 298 298 299 300 300 298 297 297 293 292 291 292 291 290 289 289 288 288 288 288 287 286 286 285 284 284
298 298 298 297 297 297 296 296 298 299 299 298 297 297 295 292 293 292 291 290 288 287 288 288 288 287 286 285 284 283 282 282
297 296 295 295 295 294 293 293 295 296 297 297 296 296 296 294 293 293 292 290 288 287 287 287 287 286 285 283 282 280 280 280
296 296 295 294 293 292 293 292 292 293 292 293 296 295 295 295 295 293 290 288 286 286 286 286 285 285 285 284 282 279 280 279
295 295 294 293 291 292 290 290 291 291 292 294 295 294 294 293 294 292 290 288 285 285 285 285 284 282 286 286 284 280 279 278
295 293 291 291 290 290 290 290 290 290 291 292 293 293 292 293 293 290 288 287 284 283 283 283 283 284 286 286 284 279 278 278

GFSFLT1_sfc_thetae_012.txt.gz
Theta_e
317 320 322 322 319 320 321 322 323 319 315 314 312 310 309 309 309 309 310 311 311 307 306 306 307 305 303 303 302 302 302 302
313 316 319 319 319 318 316 316 314 317 311 310 308 306 307 307 310 312 311 310 309 306 305 305 305 303 301 301 300 300 300 300
309 310 310 310 311 313 313 309 309 308 310 309 309 307 309 310 310 310 308 306 305 305 303 301 302 301 299 299 299 299 299 299
307 307 306 307 308 307 307 306 307 307 309 308 307 308 308 307 307 305 304 304 303 302 301 300 300 300 298 298 299 298 296 297
307 306 305 305 304 304 305 306 306 307 307 306 306 305 304 305 303 301 300 301 301 301 300 299 299 299 297 298 300 297 296 294
305 305 305 305 304 304 304 306 306 307 306 306 306 303 301 302 299 298 298 300 301 301 301 299 298 298 296 295 296 294 294 293
305 305 306 305 304 304 303 306 306 306 305 305 302 300 299 298 297 298 300 300 298 299 299 296 296 295 295 294 293 293 294 295
303 304 304 305 304 305 306 305 304 304 302 300 300 299 298 300 299 299 297 298 297 297 295 295 294 295 294 293 292 292 293 294
303 302 302 303 304 304 304 303 301 301 300 299 299 299 301 301 299 299 297 295 294 295 294 294 294 294 293 292 291 290 291 290
302 302 302 303 302 301 303 303 301 300 299 299 299 302 302 299 298 295 294 294 295 293 293 292 292 293 293 292 290 289 289 288
301 301 301 301 301 301 303 303 301 300 299 299 299 298 298 296 294 293 293 293 293 292 291 291 291 291 291 290 289 289 288 288
300 300 299 300 299 299 299 298 299 299 298 298 297 296 295 295 294 293 292 292 291 292 292 291 289 288 288 287 287 288 286 284
300 299 298 297 297 296 296 296 297 299 299 298 297 296 294 292 293 293 291 291 291 291 292 288 287 286 286 285 285 284 283 282
297 296 296 296 296 295 294 293 294 296 297 296 296 296 294 291 291 291 293 291 291 292 288 287 287 286 286 284 283 283 281 281
295 294 294 294 294 292 291 291 292 292 293 294 294 293 294 291 291 292 292 293 293 292 288 287 288 286 285 284 283 281 280 281
295 294 293 292 291 290 290 290 291 291 290 290 292 293 293 292 293 292 292 293 293 289 287 287 286 284 284 282 282 281 280 279
294 294 293 291 290 289 289 289 290 290 289 292 293 293 293 292 292 293 291 291 288 288 286 285 283 285 285 285 283 279 280 279
293 293 291 289 288 289 287 288 289 289 290 292 292 293 291 291 292 291 290 289 289 284 283 283 282 282 286 287 285 281 279 278
291 289 288 288 287 287 288 288 288 288 290 290 290 290 289 290 290 289 289 288 284 282 282 282 281 282 285 285 284 279 278 278

GFSFLT1_sfc_thetae_015.txt.gz
Theta_e
318 319 319 320 320 321 322 322 322 318 317 313 312 308 308 307 307 307 308 308 309 306 306 304 304 302 300 299 299 299 299 299
312 314 316 315 315 317 319 317 317 313 310 309 309 308 308 308 309 310 307 307 305 302 302 302 301 299 298 298 298 298 298 298
309 310 311 312 313 312 310 310 309 309 310 310 311 308 307 310 309 304 303 302 302 301 299 299 299 299 298 297 297 296 297 297
308 309 307 307 306 305 306 305 306 308 310 308 307 308 307 305 303 300 300 301 300 300 299 298 298 298 296 296 296 295 294 295
305 304 302 303 302 303 303 305 305 305 305 304 304 303 303 302 300 297 298 299 299 300 299 298 297 296 295 296 296 293 292 291
302 302 303 303 302 302 302 304 305 304 304 304 303 301 301 299 297 296 298 299 300 298 299 298 297 295 294 293 292 292 292 291
303 303 303 302 301 301 302 303 303 302 301 300 299 298 297 296 297 298 300 298 297 300 298 295 295 294 292 292 291 290 290 291
302 304 304 302 301 301 301 301 300 300 299 298 298 298 297 297 297 298 298 296 295 294 294 293 292 293 293 292 290 289 289 288
302 301 301 300 300 299 299 299 298 299 299 298 298 298 299 298 297 297 296 294 294 294 293 292 292 292 292 291 290 289 288 287
299 300 300 299 299 300 299 299 298 298 299 298 297 298 299 297 296 294 294 293 294 293 293 293 292 292 291 291 289 288 287 287
298 299 299 299 299 299 299 300 300 299 298 297 298 296 297 296 294 293 292 292 295 293 293 293 292 292 290 289 288 287 287 287
297 299 300 298 297 297 296 296 296 297 297 297 296 296 295 294 293 292 292 292 291 292 293 292 291 288 287 286 286 286 285 283
299 298 298 298 296 295 294 292 293 294 294 294 295 295 294 292 291 291 291 292 292 290 291 291 288 287 286 285 284 284 282 281
295 297 296 294 294 293 291 290 290 291 291 291 291 292 292 292 290 290 290 289 289 290 291 289 286 287 286 285 283 282 281 281
294 294 294 295 293 290 289 289 289 289 289 289 290 291 291 290 290 289 289 289 290 289 291 288 287 287 285 283 282 281 280 281
293 292 293 292 289 288 288 288 289 289 288 289 291 291 291 291 291 290 290 291 291 291 287 287 286 284 283 282 282 281 280 279
293 293 292 290 288 287 288 288 288 289 288 290 291 291 291 291 291 290 290 290 289 287 288 283 282 284 286 286 285 281 281 280
291 291 290 288 287 287 286 287 288 287 287 290 290 290 290 289 289 289 288 287 289 285 282 282 281 282 286 286 284 281 279 278
291 289 287 287 286 286 286 287 286 286 287 288 289 288 288 288 288 287 286 286 284 281 281 281 281 282 283 283 281 277 276 277

GFSFLT1_sfc_thetae_018.txt.gz
Theta_e
316 317 318 319 321 322 322 321 321 319 317 313 309 310 308 310 311 309 306 307 308 306 305 303 300 299 298 298 297 298 298 298
314 315 316 316 317 321 321 319 319 317 309 308 307 307 310 308 304 305 306 304 301 300 299 299 299 297 297 297 297 297 297 297
310 311 311 312 315 316 315 316 312 309 309 308 309 307 305 306 303 301 301 300 300 300 298 297 297 297 296 296 296 295 295 296
309 310 307 305 304 305 306 306 306 308 309 305 304 304 304 302 299 297 298 299 299 298 297 297 296 296 296 295 294 293 292 293
304 303 301 301 300 301 302 303 303 304 303 303 302 301 300 299 296 296 296 298 298 298 299 297 297 296 294 295 294 292 291 289
302 302 301 300 300 300 302 303 303 302 302 302 300 298 297 296 295 296 296 297 300 300 298 296 295 294 293 292 290 290 290 289
300 301 301 300 302 303 302 300 299 299 299 299 298 296 296 295 295 296 297 296 296 296 296 294 293 292 291 291 290 289 288 289
299 300 302 302 300 299 299 298 298 298 298 298 298 297 296 295 295 295 295 295 294 293 293 293 291 292 292 291 289 288 287 287
300 300 298 297 298 297 297 298 297 298 298 297 296 296 296 296 296 295 295 294 293 293 292 292 291 291 291 291 290 290 289 288
298 298 298 298 298 298 298 298 297 298 298 297 296 296 296 296 295 294 293 292 294 292 291 291 291 291 291 291 289 289 288 288
297 298 298 297 297 299 300 300 298 298 296 296 296 295 295 294 293 292 291 291 292 291 292 291 291 292 290 289 289 287 286 286
297 297 297 297 297 298 297 294 295 294 293 294 293 293 292 292 291 291 291 291 291 291 290 290 291 290 287 286 285 285 285 283
296 296 296 297 296 295 292 291 291 291 291 291 290 291 291 291 290 290 290 290 290 290 290 291 291 288 286 284 284 284 282 281
295 295 296 296 293 291 290 291 289 289 289 289 289 290 290 290 289 289 289 288 288 289 292 290 289 287 285 285 283 282 281 281
292 292 294 293 291 291 290 289 289 288 288 287 288 289 290 289 289 289 289 289 288 291 290 289 286 286 285 282 282 281 281 281
292 291 291 291 291 288 288 287 288 288 287 287 288 289 290 290 290 289 289 289 289 292 290 287 285 284 283 282 282 281 280 280
292 292 293 292 289 287 286 287 287 287 286 286 289 289 289 290 289 288 288 288 287 287 285 283 282 283 286 286 284 281 280 279
292 293 292 289 287 286 285 286 286 286 286 286 288 289 288 288 288 287 287 286 285 283 281 281 281 282 284 284 283 280 278 277
292 292 288 286 286 285 285 285 285 285 285 286 287 287 287 287 286 286 285 284 283 281 281 281 280 280 282 282 282 278 277 277

GFSFLT1_sfc_thetae_021.txt.gz
Theta_e
315 318 322 325 326 326 326 326 322 322 318 316 314 314 314 315 314 311 312 311 311 311 309 309 308 307 307 307 306 306 305 304
318 321 324 325 325 325 324 322 321 317 313 313 314 314 314 309 309 309 309 308 308 309 307 307 307 307 306 306 305 303 302 304
316 319 322 324 324 324 324 323 323 316 316 317 319 317 314 309 308 307 307 308 307 306 307 307 307 306 306 304 303 301 301 302
315 316 318 318 319 321 321 317 316 316 317 315 313 314 312 309 306 305 306 306 306 306 306 306 305 305 303 302 301 299 296 298
313 310 310 311 311 313 314 313 312 311 311 313 312 310 309 306 306 306 306 306 305 305 305 305 304 303 302 301 299 298 296 292
307 307 307 307 308 310 310 309 309 309 310 310 308 306 306 306 306 304 305 306 305 305 305 303 302 302 301 299 298 297 297 294
306 306 306 306 309 309 308 307 306 308 308 308 307 306 305 305 305 305 305 306 306 305 303 302 302 300 299 299 298 296 296 295
305 306 307 307 307 306 306 306 305 307 307 306 306 305 305 304 304 304 304 304 304 304 303 300 299 299 298 298 297 296 295 294
306 307 306 306 305 306 306 306 305 305 305 305 305 305 305 305 305 304 303 302 302 302 302 299 298 298 298 298 297 297 296 295
305 305 305 304 305 305 306 305 304 304 304 305 304 305 304 302 301 301 301 301 300 301 300 299 298 298 298 297 296 296 296 295
304 304 304 304 305 305 306 306 303 303 303 302 302 300 300 300 300 299 299 299 299 300 300 299 298 297 296 296 295 295 294 293
303 303 302 303 304 304 303 300 301 300 299 298 298 299 299 299 298 298 298 298 298 297 298 297 296 294 294 295 294 292 291 291
303 302 301 301 301 299 296 298 296 296 297 297 297 298 298 298 297 297 297 296 297 296 296 296 295 293 296 293 291 290 290 289
301 301 300 299 297 295 296 295 295 295 296 295 296 296 297 297 296 297 297 296 296 296 295 295 294 295 291 291 289 288 287 287
300 300 299 298 297 296 294 294 295 294 294 294 294 295 296 297 297 297 297 296 296 296 296 295 292 291 289 288 287 288 287 287
297 297 297 297 297 294 294 294 294 294 293 293 293 294 296 296 296 296 295 295 295 295 293 291 289 288 287 288 288 287 286 284
297 296 296 296 295 294 293 293 293 293 292 292 292 294 295 295 295 295 294 294 294 293 291 288 288 287 286 285 285 285 283 282
296 296 297 297 296 293 292 292 292 291 291 291 291 293 293 294 293 293 293 292 292 291 288 287 286 286 283 283 282 284 282 281
296 296 297 294 293 292 291 291 290 290 290 290 292 292 292 292 292 292 291 291 291 290 287 286 285 283 281 281 281 282 281 280

GFSFLT1_sfc_thetae_024.txt.gz
Theta_e
323 325 329 331 333 333 331 330 327 327 325 326 319 317 316 319 318 317 317 317 316 317 316 314 314 313 313 313 312 311 309 308
324 327 329 330 331 329 330 328 330 329 326 322 319 318 318 316 316 315 315 314 314 314 314 314 314 312 311 310 308 307 305 306
322 326 328 326 326 328 329 330 331 329 325 323 322 321 320 317 315 315 314 313 313 312 312 311 311 308 308 308 307 305 304 304
322 324 326 327 326 329 330 329 328 323 323 323 322 320 316 315 315 315 313 313 312 311 310 309 308 307 305 307 305 303 300 300
323 324 325 327 327 329 325 322 321 321 320 318 317 317 315 314 314 313 313 312 310 308 309 309 309 307 306 305 302 302 300 297
318 319 321 323 324 322 320 319 317 318 318 318 315 313 312 311 312 309 310 310 310 309 309 309 309 307 305 303 301 300 299 297
313 314 315 316 318 318 317 316 315 315 315 313 312 309 307 307 307 306 306 307 307 308 308 308 308 306 303 302 302 301 299 298
311 311 312 313 314 315 315 314 312 313 311 309 308 307 307 304 305 305 305 303 303 303 304 304 305 305 303 303 301 300 299 297
311 312 313 313 313 314 313 313 310 308 307 307 307 306 307 306 304 302 301 301 300 301 302 303 304 304 303 302 301 299 298 296
312 313 313 313 313 313 313 309 307 306 306 306 306 305 303 302 301 302 301 300 299 300 301 301 302 302 302 301 300 298 299 297
312 312 312 313 313 312 311 309 306 305 305 305 302 302 302 302 301 299 299 300 300 299 299 300 300 301 301 300 298 299 297 296
312 312 312 312 311 310 309 305 303 303 300 301 301 301 301 301 300 299 299 300 299 298 299 299 299 299 298 298 298 298 296 294
312 311 310 309 308 308 304 304 300 298 301 301 300 301 300 299 299 299 300 299 299 298 298 298 298 297 298 296 296 294 293 292
311 309 308 307 306 304 302 298 297 300 300 299 299 299 299 299 299 300 300 299 298 298 298 297 296 296 295 293 294 293 292 292
309 308 307 306 304 302 297 298 300 300 299 298 298 299 299 299 299 299 299 298 297 297 297 297 296 295 294 293 292 292 292 291
307 307 307 305 303 300 299 300 300 299 298 297 298 299 299 299 299 299 298 297 297 297 296 296 295 294 292 292 292 291 290 289
306 306 305 303 301 300 299 300 299 298 297 297 297 297 297 297 298 297 296 296 296 296 295 294 293 291 285 284 285 288 288 286
305 305 304 302 302 298 300 299 298 296 296 296 295 295 295 296 295 295 295 295 295 294 294 293 292 291 283 282 282 286 286 285
305 305 303 302 302 301 299 297 296 296 295 294 294 294 294 294 294 294 295 295 294 294 293 292 291 288 281 281 281 286 286 285

GFSFLT1_sfc_thetae_027.txt.gz
Theta_e
325 325 326 327 332 334 332 331 330 329 329 326 327 322 321 321 320 319 320 320 319 320 318 317 317 315 315 314 313 311 309 307
327 328 330 332 332 331 332 330 329 330 328 325 324 321 321 321 321 319 319 318 317 317 317 316 315 313 312 312 310 307 305 306
325 327 329 331 330 330 331 329 330 331 328 328 326 323 322 320 319 318 317 316 315 314 314 313 312 309 308 307 307 304 304 304
324 327 326 327 326 328 329 329 330 329 326 324 324 323 319 317 317 317 315 315 313 312 311 310 309 308 306 306 306 304 300 302
325 326 324 325 327 329 329 328 327 324 324 322 320 317 315 317 317 316 315 313 311 310 309 309 309 308 307 306 305 303 302 298
324 325 327 328 327 327 328 325 322 322 321 321 320 317 316 315 314 310 310 311 310 309 309 309 308 307 307 305 304 303 302 299
321 323 324 325 327 324 323 320 319 320 319 318 316 313 309 308 307 306 307 307 307 306 305 305 305 305 305 304 304 303 301 299
317 317 318 320 320 319 319 317 316 317 315 312 310 308 308 306 306 306 303 302 302 303 303 302 302 303 304 305 303 302 300 299
314 315 316 317 317 317 316 316 315 313 311 309 309 307 306 306 305 304 303 301 301 302 302 301 301 302 303 304 302 300 301 300
314 315 315 316 316 316 316 315 313 310 310 309 307 305 304 302 303 304 302 301 300 301 301 300 300 301 301 302 301 300 300 300
314 314 316 316 316 317 317 315 310 309 307 307 304 304 303 303 303 302 301 301 301 300 300 299 300 300 300 300 299 299 298 299
314 315 316 316 316 316 314 312 309 307 305 303 302 302 303 303 302 301 301 301 300 299 299 298 298 298 298 299 298 298 297 297
315 315 315 315 314 313 312 310 307 305 303 302 302 303 302 302 301 301 301 300 301 299 298 298 297 297 297 296 296 296 294 293
315 315 314 314 313 312 310 308 305 303 300 301 302 302 301 301 301 300 301 300 300 299 298 297 296 296 295 295 294 293 293 293
315 314 314 313 312 311 308 305 305 302 301 300 301 301 301 301 300 300 300 300 298 297 297 297 297 296 294 294 293 293 293 292
313 313 313 312 311 310 306 305 303 301 300 300 300 301 301 300 299 299 300 299 297 297 297 296 296 294 293 292 292 291 290 290
312 313 313 311 310 308 304 303 302 301 300 300 300 299 299 298 297 298 298 297 296 297 296 295 294 293 285 285 285 288 289 288
311 312 312 312 310 307 303 303 303 301 300 299 298 298 296 296 296 296 295 296 296 295 295 295 294 292 285 283 283 286 287 287
310 311 312 312 310 306 304 303 300 299 298 297 297 296 295 295 295 294 295 296 295 295 294 294 293 290 284 282 282 286 288 287

GFSFLT1_sfc_thetae_030.txt.gz
Theta_e
320 321 323 326 330 330 330 332 330 328 327 327 326 323 321 321 320 318 319 318 318 317 315 313 313 312 310 309 308 306 303 301
324 324 326 329 332 330 329 329 328 327 326 324 322 320 320 320 320 319 318 317 316 315 314 313 312 309 307 305 303 302 301 301
324 325 328 331 330 329 328 327 327 328 328 326 324 321 320 319 317 317 316 315 314 313 311 309 308 305 304 304 303 300 300 300
323 324 327 329 329 329 328 327 328 329 329 326 324 322 317 315 315 314 313 314 312 310 308 307 306 305 303 303 301 300 296 297
323 324 326 326 328 329 329 329 329 329 327 322 320 316 312 315 315 313 312 313 310 308 307 306 306 305 303 302 302 299 297 294
322 325 324 324 328 328 330 330 328 324 322 321 319 315 315 313 311 309 308 309 309 307 307 305 303 303 302 302 301 299 298 295
322 325 325 324 328 329 327 326 321 321 320 319 318 313 310 307 306 306 307 305 305 304 303 301 301 300 300 300 300 301 296 296
321 322 323 323 324 323 321 319 317 318 317 314 311 308 308 306 306 305 301 301 300 300 300 299 298 299 300 300 299 297 297 295
319 319 320 322 319 319 318 316 315 315 312 310 309 308 306 305 305 301 301 300 299 299 299 299 298 298 298 298 298 298 297 295
315 316 317 318 317 317 316 315 314 312 309 308 307 305 303 302 302 303 302 299 299 299 298 298 298 297 297 297 296 297 296 295
314 314 315 316 316 316 317 316 313 309 309 308 305 304 304 302 302 302 300 299 299 298 298 297 297 297 296 295 295 295 295 294
313 314 315 316 316 316 316 315 310 308 306 305 303 302 303 302 302 301 300 299 298 298 298 296 296 295 295 294 293 293 293 292
314 314 315 315 315 315 314 313 308 306 306 303 302 303 302 301 301 301 300 299 299 298 298 296 296 295 295 293 292 292 292 291
315 314 314 314 314 314 313 311 308 306 303 301 301 301 301 300 301 300 299 299 298 298 297 296 295 295 293 293 292 291 291 291
314 314 314 314 314 313 312 310 308 303 303 301 301 300 301 301 300 299 298 299 298 297 296 296 296 294 293 293 292 290 290 289
313 313 314 313 313 313 312 309 305 304 302 301 299 301 300 300 299 298 298 298 297 296 295 295 294 294 292 290 289 287 286 286
311 313 314 314 313 311 310 306 304 303 301 300 300 300 300 299 297 297 296 297 296 295 295 294 293 293 287 286 285 283 285 285
308 311 312 314 313 310 307 305 304 301 301 299 300 299 298 297 296 295 295 294 295 294 294 293 292 286 287 285 283 282 283 283
309 309 311 313 313 307 307 304 302 302 299 298 298 297 295 295 294 294 294 294 293 293 292 292 291 288 286 285 283 281 282 283

GFSFLT1_sfc_thetae_033.txt.gz
Theta_e
317 318 322 323 323 323 327 325 322 322 322 321 321 316 315 315 314 313 314 314 315 311 309 309 308 306 303 303 302 301 299 298
314 315 323 323 324 326 326 324 323 322 320 318 317 315 314 313 313 314 314 312 311 309 308 305 304 303 300 301 299 298 297 297
317 319 324 323 323 325 325 324 323 323 322 322 320 315 314 312 311 311 311 310 309 308 305 303 302 301 300 299 298 296 296 295
317 321 323 324 322 324 324 324 323 324 324 322 319 314 310 309 308 307 308 309 307 306 304 302 301 301 299 298 297 295 293 294
319 320 322 323 322 323 324 324 324 324 324 319 314 309 307 308 308 307 306 308 306 304 303 302 301 300 298 298 299 296 294 292
317 320 322 322 323 323 324 324 324 325 325 318 315 309 307 307 307 306 306 305 305 301 300 298 296 297 296 296 296 296 294 293
319 321 321 321 321 322 322 324 323 322 316 315 310 308 304 302 301 301 302 300 299 298 297 296 296 295 295 295 295 295 294 293
319 318 318 319 320 320 321 320 314 312 308 305 303 302 301 300 300 299 298 297 296 295 296 296 294 295 294 294 295 294 294 293
318 318 318 319 319 319 318 312 310 309 305 303 302 301 301 301 299 297 299 298 298 297 296 294 294 295 294 294 293 294 294 292
314 319 318 317 313 312 310 309 309 307 304 302 301 301 299 297 297 298 300 296 298 296 294 294 294 294 294 293 292 292 292 291
310 311 314 313 312 312 310 309 308 305 302 301 299 298 297 297 298 299 298 296 297 296 296 295 294 293 294 293 292 291 291 290
308 308 311 312 311 311 310 308 304 302 301 300 299 297 297 298 299 300 298 298 297 295 295 294 293 293 292 291 290 290 290 290
308 308 310 310 310 310 309 307 302 301 301 299 298 298 299 299 299 300 299 297 296 295 295 293 293 293 292 291 290 290 289 288
308 308 309 310 310 310 309 306 303 302 299 297 297 299 299 299 299 299 297 295 296 294 294 293 293 293 291 291 290 289 289 288
309 308 309 310 310 310 310 306 303 300 298 296 299 299 300 298 299 296 296 296 294 293 293 294 294 293 292 292 290 288 287 286
307 308 308 309 310 309 309 307 303 301 299 299 299 300 300 299 297 296 296 295 294 294 294 294 294 292 291 289 288 286 285 284
303 307 309 309 309 308 307 303 302 301 300 300 300 299 298 296 295 294 294 293 293 294 292 292 292 291 288 288 286 283 284 283
303 303 307 309 308 308 304 302 302 300 301 300 300 300 297 294 294 293 292 291 292 291 292 292 291 288 287 287 286 283 282 281
301 302 303 305 306 305 303 302 300 300 299 298 296 295 293 293 293 291 291 292 291 291 291 291 290 287 287 287 285 281 281 281

GFSFLT1_sfc_thetae_036.txt.gz
Theta_e
324 326 325 325 322 321 325 322 320 320 320 319 316 314 314 314 311 312 313 313 313 309 308 306 304 301 300 299 298 298 297 296
321 321 322 322 320 321 323 320 320 319 319 317 313 311 312 312 311 313 312 311 311 307 304 302 301 300 299 299 297 296 295 294
317 318 319 319 318 322 322 321 320 319 320 317 315 313 312 311 311 311 309 308 307 305 303 301 300 300 299 298 296 295 294 293
312 317 318 318 321 322 322 321 320 320 320 319 315 313 309 307 306 306 306 308 307 305 302 301 300 300 298 297 295 294 292 292
316 318 318 319 320 324 323 322 321 321 321 318 314 312 308 306 306 305 305 306 304 303 302 301 300 298 296 297 297 295 292 291
318 318 320 321 320 321 322 323 321 322 322 318 313 308 307 306 306 304 304 302 301 300 298 296 296 295 295 294 295 293 293 291
318 321 321 320 321 321 322 321 321 321 321 317 312 308 305 306 303 302 301 298 298 297 296 296 295 295 295 295 294 294 292 292
317 319 320 320 320 320 320 321 321 321 316 313 309 306 305 306 303 299 297 297 297 296 297 296 296 295 293 293 292 291 292 291
317 318 319 320 320 319 320 320 314 309 306 305 303 304 303 301 301 300 299 297 297 297 297 296 295 294 293 292 291 292 291 290
316 317 318 318 318 318 317 312 308 304 301 301 302 301 301 301 302 302 300 297 298 297 296 294 295 294 292 291 291 291 290 289
315 316 316 316 316 314 310 309 306 303 301 300 299 300 301 301 300 299 297 297 298 296 296 295 294 293 292 291 291 290 290 289
315 316 316 315 313 310 307 308 305 301 300 299 298 298 299 299 299 299 298 298 297 297 297 294 293 292 292 290 290 289 289 288
313 314 315 313 312 311 308 307 305 302 301 299 297 298 301 300 299 299 298 298 298 296 295 293 292 291 291 290 289 290 289 288
309 309 312 313 312 311 310 307 305 301 301 298 296 297 298 298 298 299 300 297 295 294 293 292 292 291 291 290 290 289 289 289
307 306 309 312 312 311 310 305 303 301 299 298 298 298 299 298 297 298 296 295 293 294 293 292 292 292 292 291 290 289 288 287
306 305 304 307 307 309 309 304 303 302 300 299 300 299 299 299 296 296 295 294 294 294 292 292 293 293 292 291 289 287 285 285
301 305 305 306 307 306 306 303 302 300 299 300 301 299 296 296 295 294 292 294 293 292 292 292 292 292 290 290 288 285 285 283
300 300 306 306 306 306 303 301 300 300 300 300 299 298 296 294 294 293 292 291 291 291 291 291 290 290 289 289 287 283 282 282
299 300 302 304 304 301 300 301 300 300 299 298 297 294 293 293 291 291 292 291 291 290 289 289 289 289 288 288 286 282 281 281

GFSFLT1_sfc_thetae_039.txt.gz
Theta_e
321 322 323 324 324 321 322 321 319 318 318 316 315 317 315 313 311 312 313 312 310 308 306 304 301 300 299 298 296 296 296 294
323 323 324 324 320 319 321 319 318 319 318 315 312 311 311 310 310 311 312 311 309 305 303 301 300 299 298 297 296 295 293 293
321 322 323 322 318 320 320 320 318 318 319 314 313 312 311 310 310 310 309 309 306 303 301 300 299 298 297 296 296 294 294 293
319 320 319 320 317 319 320 320 318 318 318 316 312 310 308 307 307 306 306 307 305 303 301 300 298 298 297 296 295 294 292 292
317 318 317 318 318 320 321 320 318 319 319 316 311 309 308 306 306 305 305 306 304 302 301 300 298 297 295 296 296 293 292 291
313 316 317 318 318 319 320 320 320 320 320 318 313 309 307 306 304 304 302 301 301 300 298 296 296 296 296 295 293 292 292 290
313 316 317 316 318 319 319 320 320 320 319 317 313 309 306 305 303 301 300 297 296 296 296 297 296 296 296 293 292 292 292 291
314 315 316 317 317 319 320 320 319 319 319 317 312 310 307 307 304 302 297 295 295 295 296 297 297 295 294 294 291 291 292 291
316 317 317 318 318 320 320 320 320 318 316 314 310 308 307 307 304 301 299 298 297 297 297 296 297 295 295 294 293 293 291 290
315 318 318 318 319 320 319 319 318 313 310 306 303 302 301 304 303 302 299 298 297 297 297 296 296 295 294 293 293 290 290 290
313 316 317 319 318 319 318 317 314 306 303 303 303 304 304 304 302 300 298 298 298 297 296 296 295 295 294 291 290 290 290 289
314 315 316 317 318 317 316 311 307 302 301 301 301 302 301 301 300 299 298 298 297 296 296 295 295 293 291 290 290 290 290 289
314 315 316 316 315 315 315 311 307 304 302 300 299 300 300 299 299 298 297 296 295 297 297 296 294 292 290 289 289 289 288 287
311 312 314 314 314 313 312 311 307 302 300 300 300 299 299 298 298 298 296 296 297 296 295 293 293 291 290 290 289 288 288 287
306 308 311 314 313 312 310 305 303 302 301 299 298 299 299 299 299 298 297 295 295 294 294 294 293 292 292 292 290 288 287 287
304 304 305 307 308 309 308 305 303 301 301 300 298 299 299 300 297 294 296 295 294 294 293 293 292 293 292 291 289 287 286 285
300 303 304 304 306 306 306 303 302 301 299 299 299 300 298 296 295 294 293 293 293 293 293 293 292 292 291 291 289 285 285 284
299 299 303 303 303 304 302 299 298 298 299 300 300 298 296 294 293 293 292 292 292 292 292 290 289 289 290 290 289 284 283 282
298 298 299 299 299 298 298 298 298 298 298 299 297 294 292 292 292 292 292 293 291 289 288 288 287 287 289 289 288 282 281 282

GFSFLT1_sfc_thetae_042.txt.gz
Theta_e
319 318 319 319 319 321 321 320 319 317 316 315 315 316 315 315 314 313 312 311 309 308 306 304 302 300 298 297 296 296 295 295
319 320 320 319 320 318 320 318 317 317 315 314 312 312 314 313 313 312 311 309 308 306 303 301 300 298 297 297 296 295 293 293
319 319 320 321 320 319 319 319 317 318 319 314 313 311 311 313 312 310 310 308 307 304 301 299 299 297 297 296 295 294 293 292
318 319 320 321 318 318 319 319 318 319 318 314 310 309 309 309 307 307 307 307 304 302 300 299 298 297 296 295 294 293 291 292
318 319 319 320 319 317 319 319 318 318 317 315 311 310 307 307 308 307 305 305 303 301 300 298 297 296 295 295 295 294 292 291
316 318 320 320 317 315 317 318 318 318 318 316 312 308 308 306 305 304 303 302 301 300 299 296 295 294 294 294 293 294 292 291
316 317 317 315 314 316 317 317 317 319 318 316 312 309 307 307 304 303 300 298 297 297 296 295 294 294 295 294 295 294 292 292
310 311 313 313 315 317 317 318 318 319 318 317 313 311 311 309 306 304 300 295 294 294 295 294 294 295 296 295 294 293 291 291
309 311 314 314 315 317 318 319 318 318 317 317 315 314 313 311 309 305 301 297 295 295 296 297 296 297 296 294 293 294 292 290
310 312 314 314 316 317 319 319 319 318 317 317 317 314 311 310 308 304 299 297 297 297 297 297 298 296 295 294 294 293 292 290
311 313 314 316 317 317 318 319 319 318 315 314 312 309 309 308 305 302 299 299 298 296 297 298 296 295 295 293 292 291 289 290
311 314 316 317 317 317 317 317 317 312 311 307 306 304 305 306 304 304 301 299 296 295 296 296 295 294 293 292 291 290 290 289
310 312 314 316 317 316 316 316 315 312 306 302 304 305 305 303 302 299 297 295 296 296 296 295 295 293 293 291 289 291 289 287
310 311 312 314 315 317 316 315 311 306 303 301 302 301 302 300 298 298 297 297 296 296 296 295 295 295 291 290 291 289 288 288
306 308 310 311 312 311 311 309 306 304 302 302 301 299 298 299 299 298 298 297 295 295 295 295 294 292 292 292 290 289 287 287
303 305 306 307 308 309 309 305 302 302 301 300 297 298 297 298 297 295 295 294 294 294 294 295 295 293 292 292 291 288 286 285
299 301 303 303 305 306 306 303 301 301 298 296 297 298 297 296 293 292 293 294 295 295 295 294 293 294 292 291 290 286 286 285
297 298 299 301 300 302 301 299 298 297 297 298 298 296 294 294 294 293 293 293 294 294 293 293 291 289 289 290 290 286 284 283
292 293 295 295 295 295 296 296 297 297 296 295 296 294 292 293 293 293 293 293 293 292 290 288 287 287 288 289 288 285 283 282

GFSFLT1_sfc_thetae_045.txt.gz
Theta_e
320 323 323 323 324 325 325 327 329 328 327 325 326 327 327 326 326 324 322 319 318 318 316 315 312 309 309 308 307 307 306 306
321 322 325 323 324 325 325 326 327 326 323 322 323 323 323 322 322 322 321 320 318 317 314 312 311 310 308 308 307 306 305 306
320 322 322 323 322 324 325 326 326 326 325 324 324 325 324 323 317 316 316 318 316 314 312 310 310 308 308 307 307 305 305 305
320 321 322 323 323 323 325 326 327 327 326 324 321 321 320 318 316 315 316 316 313 311 311 310 309 308 307 307 306 304 301 303
321 322 322 323 324 325 325 326 325 326 325 323 321 321 319 319 318 318 315 314 311 308 309 309 308 308 306 306 304 304 302 299
320 323 325 325 326 325 326 326 325 325 324 324 322 322 322 319 318 316 313 311 310 307 308 308 307 306 305 304 303 302 299 297
320 324 326 326 326 325 325 324 324 325 324 323 321 320 317 315 315 312 310 312 309 307 307 307 306 304 303 302 303 301 299 300
317 320 322 324 323 324 324 324 323 323 323 322 321 320 318 317 315 310 307 308 307 306 306 304 302 302 301 301 298 298 299 298
316 319 322 323 323 324 323 322 323 323 322 322 322 321 320 318 315 312 309 308 308 306 303 302 301 300 300 299 298 298 300 300
313 317 319 321 322 322 322 322 323 322 322 323 322 321 320 315 313 312 309 308 304 304 302 302 303 300 300 298 298 299 300 300
312 315 317 320 322 323 324 324 323 324 323 323 322 322 320 318 316 313 310 307 304 302 302 302 301 301 299 297 299 299 299 298
314 317 318 320 321 322 322 323 323 324 323 323 322 321 319 318 314 313 308 305 303 301 301 301 300 297 297 296 296 298 297 298
315 318 320 320 320 321 322 322 323 324 322 319 319 317 314 314 311 310 308 304 302 301 300 299 297 297 297 296 296 294 296 296
315 317 318 320 320 321 321 322 322 322 316 315 315 313 311 310 309 307 304 301 301 299 298 296 296 297 298 296 297 297 296 296
313 316 317 318 319 321 320 320 317 313 311 309 309 308 308 307 305 304 303 301 299 299 298 298 297 295 297 297 296 295 295 295
309 311 314 317 318 319 318 317 313 312 309 308 306 304 304 304 302 299 299 297 296 297 296 297 297 296 295 295 296 296 297 295
304 305 306 307 309 313 313 310 308 308 306 304 302 302 299 296 295 294 295 295 297 298 296 295 295 295 293 293 293 296 294 293
300 300 301 301 303 306 306 305 304 303 302 301 300 297 295 295 295 295 296 295 297 296 296 296 294 295 292 291 290 293 293 293
297 298 298 298 300 300 302 302 302 301 300 299 297 295 294 295 295 295 295 295 295 295 295 295 296 294 289 289 288 292 292 292

GFSFLT1_sfc_thetae_048.txt.gz
Theta_e
322 324 326 326 326 326 328 328 331 333 332 329 325 328 330 334 335 333 333 330 328 327 325 323 323 321 318 316 315 313 312 312
323 322 324 325 326 327 327 329 331 332 329 325 322 324 328 332 333 333 332 329 326 326 324 323 322 318 318 317 314 311 309 311
322 325 325 324 325 327 327 327 329 332 331 327 325 324 327 329 332 332 331 329 327 326 325 321 320 319 317 315 313 310 311 311
322 323 325 327 325 327 327 327 329 332 332 329 326 326 328 328 328 327 323 321 323 324 321 317 318 318 315 315 313 311 308 308
323 324 326 326 328 328 328 329 330 332 333 330 326 322 322 327 329 328 326 326 323 321 319 316 317 317 315 314 312 310 308 307
322 325 327 329 329 329 329 329 329 331 333 332 328 324 325 328 329 327 326 324 322 319 317 315 315 314 315 313 310 309 309 308
323 325 328 329 331 331 331 329 329 331 332 332 331 329 327 326 326 325 324 321 319 317 315 316 314 314 314 311 310 310 306 302
324 324 326 329 330 331 332 330 328 330 330 330 331 330 330 328 326 325 324 319 312 313 314 315 314 314 311 310 307 306 304 303
323 324 326 329 330 332 332 328 327 329 330 330 331 331 328 328 328 326 322 315 313 314 313 313 313 310 307 303 303 306 304 304
320 323 326 328 331 332 332 331 330 329 329 330 328 327 327 327 328 324 315 313 313 314 312 310 306 307 305 302 303 300 300 303
317 319 323 327 330 332 333 332 330 330 330 330 328 327 327 327 326 318 316 316 314 312 308 307 306 303 302 302 299 300 300 301
318 320 322 324 327 329 330 330 330 330 330 330 329 327 327 326 324 321 321 319 315 308 309 308 304 301 300 297 298 299 298 298
320 322 324 324 325 326 327 328 329 330 331 330 329 328 325 323 322 321 319 312 309 308 305 301 302 298 298 297 297 296 297 297
320 322 324 325 325 326 327 328 328 329 329 327 325 321 319 316 314 311 309 307 305 302 301 302 299 298 296 297 298 298 297 299
319 321 323 324 325 327 327 326 327 325 322 320 316 315 313 311 310 307 305 305 302 301 300 298 297 297 298 298 298 298 298 298
317 320 322 324 325 325 325 325 323 322 318 315 312 310 309 309 311 309 306 303 301 300 299 296 298 298 298 298 297 296 296 297
313 315 316 315 317 320 319 318 316 317 315 312 309 309 308 306 303 302 302 299 300 298 299 299 298 298 293 292 294 296 297 298
309 309 310 311 313 315 314 313 313 312 310 307 305 303 301 301 301 300 299 301 300 299 298 298 297 297 293 293 291 297 296 296
306 307 308 309 310 311 311 311 309 308 306 304 302 302 301 301 301 300 300 299 298 297 296 297 298 297 292 290 289 294 296 296

GFSFLT1_sfc_thetae_051.txt.gz
Theta_e
322 323 322 322 324 326 325 325 325 328 329 327 324 326 326 328 330 332 334 335 334 333 330 329 328 325 323 322 321 319 316 314
324 323 324 323 326 326 326 327 329 329 326 324 320 323 325 327 330 333 333 333 333 331 329 328 327 325 324 322 320 316 313 313
321 323 324 324 325 326 327 327 327 330 329 326 324 323 324 325 329 333 333 333 331 330 329 327 326 324 322 321 319 314 314 314
321 320 322 325 325 326 327 328 329 331 331 329 326 324 325 324 326 329 331 332 331 329 329 327 326 324 321 320 318 316 312 312
322 323 323 323 325 328 328 328 329 329 331 329 326 322 319 323 325 328 330 331 328 327 327 326 324 323 320 319 318 317 314 310
322 323 325 326 327 329 330 328 328 329 331 331 329 325 324 325 328 329 330 330 328 327 326 325 322 320 321 319 319 316 313 311
321 325 326 327 329 330 331 328 328 329 330 331 331 329 326 323 328 328 329 329 328 326 323 323 321 320 318 318 318 315 313 310
321 322 324 326 329 330 331 328 326 328 329 330 331 331 330 327 326 329 327 325 325 324 322 319 316 316 316 318 316 312 307 305
321 322 323 326 330 331 330 330 329 328 326 329 332 332 333 331 331 329 328 327 327 323 317 315 315 315 315 311 305 307 307 305
319 323 325 326 330 333 334 331 331 330 328 327 327 333 334 332 332 333 330 329 320 316 314 315 315 315 308 305 305 304 300 304
318 322 324 327 330 334 335 335 332 332 331 331 331 332 332 331 331 329 328 323 319 316 316 315 313 306 307 306 301 301 299 300
318 320 323 325 329 331 334 335 334 333 333 333 332 330 330 328 327 326 323 322 320 317 316 313 307 308 305 300 300 299 298 299
321 322 322 324 326 329 331 333 332 332 333 333 331 329 327 325 324 322 321 320 315 312 308 307 304 300 300 297 298 298 297 297
320 323 324 324 326 327 329 330 330 331 332 331 328 323 322 319 315 313 312 310 308 307 304 303 300 299 298 298 298 297 297 297
317 320 324 325 326 327 328 329 330 330 329 327 322 319 317 315 313 310 308 305 303 302 303 300 298 297 297 298 297 297 298 298
316 318 322 324 326 328 329 326 326 324 319 316 313 314 314 312 310 309 307 305 303 301 299 299 298 298 298 298 298 298 296 296
316 320 323 324 326 326 324 323 323 323 319 316 315 314 314 311 309 308 307 305 305 303 302 301 300 300 293 293 295 296 296 296
316 318 319 319 321 321 319 318 318 316 314 312 310 308 307 305 305 304 304 304 304 302 301 300 301 300 293 293 292 297 297 297
313 314 314 316 317 316 316 315 313 311 309 307 307 306 305 305 305 303 303 303 302 302 300 298 299 299 293 293 290 295 295 296

GFSFLT1_sfc_thetae_057.txt.gz
Theta_e
312 312 313 313 313 315 315 316 315 316 317 315 314 315 316 319 319 320 325 326 326 325 324 324 322 319 317 315 313 314 312 307
313 313 313 313 313 314 314 313 312 312 312 311 312 313 314 319 319 320 324 325 327 326 325 323 321 318 317 315 313 312 309 307
314 313 314 312 312 314 313 313 311 311 311 313 315 315 316 318 319 320 326 326 327 326 324 322 320 318 317 315 313 309 308 305
312 312 312 312 313 314 313 314 313 313 314 316 317 315 316 318 318 318 325 326 326 326 324 322 320 319 317 314 312 309 306 306
313 313 312 312 313 315 315 316 315 315 317 318 317 315 313 317 318 319 323 325 325 326 325 322 320 320 316 315 314 310 307 306
314 313 314 315 315 315 316 318 315 315 316 320 319 319 317 316 318 317 322 324 325 325 324 322 320 319 316 314 312 310 312 308
315 316 316 316 318 318 319 318 318 317 319 320 321 321 316 314 314 316 320 323 324 324 322 320 319 316 315 315 315 313 313 309
315 315 316 317 317 319 320 320 320 322 321 322 322 323 321 318 317 317 319 321 320 322 323 318 316 317 317 316 314 312 310 304
316 316 316 318 319 319 320 320 320 322 322 323 324 324 324 322 321 319 321 322 323 323 322 320 318 317 315 313 312 308 305 304
316 317 317 317 319 319 320 321 321 322 322 322 324 325 322 324 323 324 322 322 321 320 320 319 317 316 314 310 307 304 304 302
312 318 318 318 319 319 320 322 322 322 322 322 322 324 324 322 322 321 322 318 315 315 315 315 314 312 308 306 304 303 302 300
309 310 316 321 321 321 320 320 322 322 323 323 323 324 324 322 319 318 320 316 316 316 315 313 311 307 305 303 301 300 299 298
310 311 313 315 320 322 322 323 323 323 324 323 323 322 322 321 321 320 320 318 317 315 313 311 306 304 302 300 299 298 298 297
311 313 314 315 318 322 324 325 325 327 326 324 323 323 322 320 316 314 313 311 309 308 306 304 302 301 299 299 298 298 297 297
311 313 314 315 318 321 323 322 327 326 324 321 318 316 314 311 309 308 307 306 304 303 303 301 300 299 298 298 297 296 296 296
313 313 314 316 318 320 318 318 319 319 317 315 312 311 310 308 306 304 304 303 302 301 299 299 298 298 298 297 297 296 296 296
311 315 317 318 320 318 317 315 314 314 312 311 311 310 307 305 304 302 301 300 300 299 298 297 296 297 293 294 295 296 296 296
305 315 318 319 320 318 316 315 314 312 311 311 311 309 306 304 303 301 300 298 297 295 295 295 294 294 293 293 293 296 294 292
314 315 317 320 320 318 317 314 312 311 309 307 306 304 303 302 299 298 297 296 295 295 297 298 297 296 292 292 290 290 289 288

GFSFLT1_sfc_thetae_060.txt.gz
Theta_e
310 312 314 314 316 317 315 315 315 315 315 316 317 317 318 319 319 318 322 322 324 322 322 321 321 319 316 314 312 312 311 309
311 311 312 313 315 313 314 312 313 315 315 314 313 313 316 318 318 319 321 322 324 322 321 322 320 319 316 314 312 311 310 306
310 310 310 311 312 313 313 313 313 315 315 314 313 315 315 315 318 318 318 323 324 323 322 321 319 317 314 313 312 309 309 305
309 310 309 310 311 312 313 312 312 313 313 312 311 312 313 313 314 315 318 321 323 323 323 322 319 318 316 313 312 309 308 305
310 310 309 310 311 313 313 313 312 313 312 311 311 311 310 312 313 314 316 322 323 324 323 322 320 319 317 316 314 311 310 308
311 311 311 311 312 312 312 312 312 312 311 312 312 311 312 313 315 316 316 319 323 324 323 322 320 319 318 316 313 313 312 311
312 312 312 311 312 313 311 311 313 311 312 313 314 313 314 313 313 315 316 318 320 323 324 323 321 320 318 316 316 313 311 311
311 311 311 311 311 313 313 312 313 312 312 313 316 316 316 317 314 314 315 316 319 321 322 321 320 320 319 318 316 312 311 309
313 312 312 312 312 312 313 313 313 313 312 312 314 318 319 320 318 316 315 317 320 322 321 321 319 319 318 316 313 312 310 308
313 314 313 313 314 314 315 315 315 316 314 314 315 318 319 321 322 318 317 319 320 318 320 321 318 318 318 314 311 305 305 304
314 315 315 316 316 316 317 318 318 318 319 319 319 320 321 322 321 319 320 319 318 316 317 319 317 317 314 311 307 304 303 302
314 315 316 317 318 317 318 319 319 319 321 321 320 321 322 321 321 319 320 318 315 313 315 316 315 312 309 305 303 302 301 299
311 314 316 316 317 318 318 319 319 320 321 321 321 321 322 321 321 320 319 316 315 314 314 311 309 306 304 302 301 301 299 298
307 308 310 315 317 317 318 319 319 321 323 322 322 322 322 323 321 322 322 315 313 312 312 310 305 303 301 300 299 299 299 298
308 309 311 313 315 318 319 319 320 322 323 322 321 321 321 320 317 314 313 312 308 307 306 304 302 300 300 299 299 298 297 297
309 310 310 314 317 318 319 321 322 323 322 322 320 319 315 312 310 308 306 305 304 302 302 301 299 299 299 298 298 296 296 295
310 311 312 317 317 315 314 315 320 322 320 317 313 311 309 307 305 305 303 302 302 300 299 299 298 298 293 294 295 295 295 295
309 311 314 318 316 315 313 313 315 315 313 312 310 308 306 304 304 302 300 299 299 299 297 297 296 295 292 293 292 295 295 294
305 313 314 317 316 314 312 312 312 311 311 309 308 306 303 302 301 300 300 299 296 296 295 294 293 293 292 291 290 290 287 286

GFSFLT1_sfc_thetae_063.txt.gz
Theta_e
309 312 314 315 317 317 316 316 317 317 316 316 317 317 317 318 318 320 321 321 322 319 319 319 319 317 315 314 312 310 308 306
309 311 314 314 315 315 314 315 314 314 313 314 314 315 315 317 317 319 321 321 323 321 319 319 319 318 316 314 310 309 309 307
308 307 310 310 314 314 313 312 311 312 314 314 313 316 315 315 317 318 318 320 320 321 320 319 319 317 315 312 310 308 309 305
308 308 308 310 312 313 313 311 312 312 312 314 311 312 313 312 313 315 316 317 320 321 321 320 318 317 315 312 311 310 308 306
309 308 307 309 310 313 312 312 311 313 313 309 309 309 310 312 313 312 313 317 318 320 321 320 319 318 315 314 314 312 310 307
309 308 308 309 310 311 311 312 311 312 312 311 310 309 311 310 309 309 311 313 318 319 319 318 318 318 318 316 313 311 312 310
311 310 310 309 310 310 311 311 311 312 312 310 310 310 310 309 308 309 312 313 314 317 319 319 319 319 318 317 317 315 314 313
311 309 309 309 308 309 310 311 310 311 311 311 310 310 310 310 310 311 311 312 313 315 317 319 319 319 319 318 316 316 313 311
312 311 310 310 309 309 310 310 310 311 310 310 311 311 312 313 313 312 313 313 315 315 316 319 319 319 317 316 316 314 312 311
311 312 311 311 310 310 310 310 310 311 311 310 311 312 313 313 315 315 315 314 315 315 316 317 318 318 318 317 317 316 311 309
312 312 312 312 311 311 312 312 310 311 312 310 311 311 313 316 317 318 318 317 318 318 316 317 318 318 317 318 317 310 307 305
311 313 314 313 313 312 312 312 313 312 313 313 311 311 312 315 317 319 320 318 318 317 317 318 318 317 315 313 309 306 304 301
311 313 314 314 313 313 313 313 313 315 316 316 316 316 319 319 320 321 322 320 318 318 315 315 314 313 311 308 305 303 301 300
306 310 313 314 314 315 315 315 315 317 319 319 319 320 320 321 321 322 321 320 317 315 314 312 311 307 306 304 303 301 300 300
303 307 311 314 315 315 316 316 317 318 319 319 319 320 320 321 321 321 321 319 316 314 314 310 306 303 302 301 300 299 298 298
305 306 307 310 313 315 316 316 317 318 318 319 319 320 321 321 320 318 312 314 313 311 305 303 302 302 301 300 299 298 297 296
305 308 309 311 314 314 313 315 316 318 319 319 320 320 318 317 315 309 306 305 306 303 302 300 300 301 294 294 296 297 296 295
304 307 310 313 316 315 314 316 317 317 318 318 319 316 312 309 307 306 303 303 303 301 299 299 300 297 292 293 293 296 295 294
302 306 310 313 313 311 314 317 318 318 317 315 312 310 308 307 305 302 301 301 299 298 298 299 297 295 291 291 290 291 288 286

GFSFLT1_sfc_thetae_066.txt.gz
Theta_e
308 311 312 316 316 318 318 318 318 318 318 318 318 318 318 321 321 319 319 319 319 318 317 316 316 315 314 312 311 310 309 307
308 312 314 313 316 316 316 316 316 316 316 315 315 315 316 317 318 320 320 320 320 319 318 318 318 316 314 313 311 310 309 307
307 308 312 313 314 315 315 315 314 315 316 317 316 316 315 316 317 318 320 321 322 321 319 318 318 317 316 313 311 309 309 306
308 307 309 312 312 314 313 313 313 313 314 314 313 316 313 312 313 315 317 319 321 320 320 319 318 317 315 312 311 310 308 306
308 308 307 309 311 313 313 312 311 311 311 310 309 313 313 313 313 314 315 317 318 319 320 319 318 317 316 315 313 311 309 307
307 307 307 309 311 311 313 313 310 312 311 310 310 308 314 312 312 311 312 314 316 316 317 318 318 318 317 315 312 311 311 309
310 309 308 307 308 310 311 311 311 311 311 310 309 309 309 309 306 307 308 309 311 314 316 316 316 315 315 316 315 313 313 312
309 307 307 307 306 308 310 310 309 310 310 311 309 309 309 309 309 307 307 308 309 310 313 314 315 316 315 315 313 312 312 312
310 309 308 308 308 308 309 309 310 310 310 310 310 310 310 310 309 310 308 308 309 310 311 314 315 315 315 313 314 315 315 314
310 311 310 309 309 308 309 309 310 311 310 310 310 310 309 310 309 310 309 309 311 310 311 312 313 314 314 316 316 315 315 314
309 311 311 311 310 310 309 310 310 311 311 310 310 309 309 310 310 310 313 313 312 311 312 312 313 313 314 316 316 317 317 314
309 311 313 312 312 310 309 310 310 310 312 312 310 309 309 311 312 312 314 316 317 316 317 317 317 317 315 315 317 313 311 309
307 310 311 311 311 311 310 310 310 310 312 313 311 310 311 310 311 314 315 315 318 319 319 318 317 317 316 315 313 308 308 304
304 308 311 311 311 312 311 311 311 312 311 312 312 311 311 311 312 313 315 316 317 318 318 317 316 314 312 311 310 307 305 304
301 305 310 312 313 312 312 312 312 312 313 312 312 312 312 312 313 314 316 318 319 319 318 317 314 311 309 307 306 302 301 300
300 302 307 310 311 313 313 313 313 313 313 313 313 315 315 315 315 316 315 318 319 319 315 310 306 305 304 303 302 300 299 298
301 304 304 307 311 312 313 313 314 314 314 314 316 316 317 316 317 318 318 317 317 314 310 309 303 303 299 297 299 299 298 296
301 303 307 307 308 311 312 313 314 314 315 315 316 316 317 317 318 316 312 312 309 306 304 304 301 298 295 296 294 298 296 295
302 302 305 308 310 311 311 312 312 314 314 315 316 316 316 311 309 308 306 303 304 302 302 300 298 295 293 293 293 292 290 289

GFSFLT1_sfc_thetae_069.txt.gz
Theta_e
315 316 315 316 319 320 320 321 320 321 321 321 322 324 325 324 323 322 321 322 322 322 321 321 321 321 320 319 318 317 315 312
315 316 317 315 316 318 319 318 319 319 319 321 318 317 319 321 322 322 320 321 321 321 321 321 322 320 320 321 320 317 316 315
313 314 315 315 314 317 318 318 317 319 320 320 320 320 320 319 321 321 320 321 322 321 320 321 321 321 321 319 319 318 318 315
311 312 313 314 314 314 316 318 317 318 318 317 317 316 316 317 317 318 320 321 322 322 321 323 322 323 321 321 320 320 318 316
313 312 312 312 314 315 318 318 317 319 318 315 316 315 312 315 317 318 319 321 322 323 323 323 322 324 323 321 323 322 321 317
314 313 313 313 314 314 318 318 318 318 318 318 317 316 317 316 314 315 317 318 320 321 323 322 323 322 322 324 322 320 320 320
315 316 314 313 314 313 317 316 316 318 317 317 317 318 318 313 313 315 314 316 318 320 320 324 325 324 325 325 324 323 322 321
315 313 312 312 312 311 314 314 314 316 317 316 316 316 318 318 315 316 313 314 315 318 322 322 322 323 323 324 324 323 323 322
314 314 314 312 311 311 313 312 312 314 316 316 316 317 317 318 318 317 316 317 318 319 320 321 322 322 323 324 324 324 324 323
314 315 315 314 313 313 313 311 311 313 316 316 316 316 316 316 317 318 319 319 319 319 320 320 321 322 323 324 323 323 323 324
313 315 315 315 315 315 315 314 313 315 316 316 316 316 316 317 318 317 318 319 318 318 319 319 320 321 322 323 323 324 322 323
313 315 317 316 316 315 314 314 314 315 316 316 316 316 316 316 316 317 317 318 318 317 319 319 319 320 321 321 322 322 320 320
312 315 316 316 316 315 315 315 315 316 317 316 316 316 315 315 315 315 316 316 318 319 317 318 320 320 321 320 317 315 315 314
309 313 314 316 316 316 315 315 315 317 316 317 316 315 314 315 315 317 318 318 319 320 319 319 319 316 316 316 316 315 313 313
307 310 314 316 316 316 316 316 317 316 316 316 316 316 315 316 317 317 318 318 318 318 317 319 320 319 316 316 315 314 311 309
305 307 310 314 316 316 317 316 316 317 315 315 315 317 316 316 317 317 317 318 318 319 319 320 320 317 313 312 311 309 304 302
307 306 308 310 314 316 317 317 317 317 316 315 316 316 316 316 316 316 317 318 320 322 321 320 311 310 299 299 304 304 301 300
307 308 309 310 312 316 317 318 318 316 316 316 316 316 316 317 316 316 317 318 320 321 318 315 310 308 296 297 298 302 299 297
308 309 309 310 313 314 317 318 318 317 316 316 317 317 317 318 318 318 318 318 316 313 309 307 302 298 294 295 295 297 294 292

GFSFLT1_sfc_thetae_072.txt.gz
Theta_e
323 323 322 323 324 324 323 324 323 323 323 325 324 325 327 326 325 323 323 323 324 323 322 325 325 322 322 321 320 320 319 316
324 324 323 322 322 322 323 320 321 322 322 321 319 321 322 324 324 324 324 323 323 324 322 324 325 323 324 324 323 321 319 319
322 322 322 322 321 321 322 320 320 322 321 322 322 321 324 325 323 323 322 325 323 323 322 323 325 324 326 325 323 320 322 322
321 321 322 322 319 321 321 321 322 323 324 325 322 320 320 320 321 321 321 322 324 322 321 320 322 324 323 324 324 323 321 322
322 322 321 321 321 320 322 320 322 322 322 320 322 321 316 321 319 320 321 321 322 321 320 320 322 324 324 326 325 325 325 322
322 322 322 323 322 321 320 321 323 321 320 321 320 321 317 319 320 319 319 320 322 322 322 322 322 323 326 327 325 326 326 324
322 324 324 322 323 322 322 322 322 322 322 320 319 318 318 317 316 318 317 318 319 321 322 324 325 324 327 327 326 327 327 326
321 322 322 322 321 321 321 322 321 322 322 322 321 322 322 319 317 317 316 316 317 318 321 321 322 324 321 324 324 326 326 326
320 322 322 322 322 321 320 321 321 322 322 323 323 323 323 322 322 321 322 321 321 323 323 321 322 322 321 324 325 325 326 326
319 321 323 323 323 322 320 320 321 322 323 323 323 323 324 325 324 324 324 324 323 324 325 324 324 324 325 326 325 325 325 326
318 321 322 323 324 323 322 322 320 321 322 323 322 322 323 323 325 325 326 325 325 325 325 325 325 324 324 324 324 325 324 326
317 320 322 323 324 323 323 322 320 320 321 323 323 322 322 324 325 325 325 326 325 324 323 324 322 323 323 323 323 323 323 324
315 320 321 322 323 323 323 323 321 321 322 323 323 323 322 322 323 325 327 326 326 325 323 321 322 322 323 324 323 322 323 323
314 318 320 321 322 322 322 323 323 323 322 322 322 322 322 323 322 322 323 323 323 324 323 323 322 323 322 322 324 322 323 322
313 314 317 320 322 323 322 323 324 324 322 322 321 321 323 322 322 321 322 322 320 321 322 322 323 322 320 321 318 317 316 315
312 313 315 319 321 322 323 323 323 324 322 322 323 322 322 322 321 321 322 322 321 321 322 323 323 320 317 318 320 319 315 313
312 313 313 314 318 321 322 322 323 323 322 321 322 323 322 322 321 321 322 321 321 322 323 322 321 320 306 302 313 316 313 309
311 312 314 315 315 319 321 323 324 322 321 322 321 322 321 322 321 321 320 321 322 322 321 321 322 322 298 299 299 315 310 305
310 312 313 314 316 317 320 322 323 322 321 321 321 321 321 321 321 320 321 321 321 321 322 322 322 318 297 297 294 304 299 297

GFSFLT1_sfc_thetae_075.txt.gz
Theta_e
325 326 326 326 327 328 327 325 325 323 323 325 324 324 324 325 324 324 326 327 327 327 325 326 325 323 323 322 323 321 320 318
326 327 326 325 326 325 327 324 324 323 323 321 321 320 322 325 324 323 324 325 326 325 325 327 327 323 323 326 323 323 320 321
324 326 326 324 325 323 325 324 325 324 322 323 323 322 323 324 324 322 322 324 324 324 325 325 326 323 326 327 326 322 322 323
323 325 326 325 324 324 325 324 322 324 325 325 324 324 323 322 322 323 322 323 323 323 325 326 327 326 325 326 327 325 321 322
323 325 325 326 324 326 324 323 324 323 325 322 320 318 317 319 321 321 320 322 324 323 324 325 326 327 324 328 328 327 324 319
323 324 325 326 326 324 326 322 324 323 324 324 320 319 319 322 321 319 319 320 322 323 323 322 321 323 323 326 326 326 325 322
323 326 326 326 327 325 325 323 323 324 323 326 324 325 322 320 319 318 317 318 319 321 321 321 320 321 320 324 327 326 326 325
321 323 324 325 325 324 323 323 323 323 323 324 325 325 325 320 322 318 318 316 318 319 321 320 318 318 321 321 324 326 321 319
319 323 325 325 326 325 323 322 323 324 323 323 324 324 324 325 323 322 323 320 320 321 320 319 318 319 322 322 321 324 321 324
319 322 324 326 326 326 324 323 323 324 325 325 324 326 325 324 325 326 324 324 324 324 322 319 319 319 321 325 319 320 321 322
317 321 324 325 326 327 327 324 323 324 325 326 325 326 326 327 327 326 326 326 326 324 323 322 321 320 322 325 324 323 319 320
317 321 323 326 327 327 326 325 323 323 326 325 325 327 327 329 328 328 328 328 327 326 325 324 323 323 324 324 323 324 322 323
316 319 322 324 325 326 326 325 324 324 327 327 327 327 326 327 328 329 330 328 328 327 326 325 325 324 325 324 323 322 323 322
315 317 320 323 324 325 325 326 325 327 325 325 327 327 327 326 327 328 328 329 328 326 325 325 324 324 324 324 324 324 324 323
313 315 317 322 324 324 325 327 329 328 325 324 324 327 327 327 327 327 327 327 327 327 326 326 325 324 324 324 323 323 324 323
312 314 316 318 322 324 325 326 327 328 326 325 325 327 327 326 327 326 326 326 326 327 326 326 327 325 323 324 323 321 319 319
310 313 315 316 317 322 324 325 327 328 327 326 326 326 326 326 327 327 326 325 325 326 325 325 325 323 309 302 311 317 315 315
311 312 314 315 317 318 320 324 326 327 326 326 326 327 326 327 326 325 325 324 325 324 324 324 324 325 302 301 300 318 316 316
312 313 315 316 316 316 318 319 323 325 325 325 326 326 326 326 326 325 325 325 324 324 324 325 324 323 298 300 297 316 318 315

GFSFLT1_sfc_thetae_078.txt.gz
Theta_e
323 324 325 324 327 327 327 326 324 324 325 323 322 321 323 324 324 323 324 324 325 324 324 326 324 323 321 319 318 318 315 315
324 325 326 325 327 326 325 323 322 323 322 321 320 319 321 322 323 323 324 323 323 323 321 322 322 320 317 318 319 316 315 316
323 324 325 324 324 325 324 324 323 322 323 322 322 321 322 322 323 321 322 322 322 322 321 320 319 318 318 320 319 316 316 316
321 323 325 323 324 323 324 324 324 323 323 323 322 322 321 320 321 319 320 321 322 322 322 322 321 320 321 320 320 318 315 315
321 323 324 323 323 324 324 324 323 323 323 322 320 318 316 319 319 321 319 321 321 319 322 322 322 322 321 321 323 321 320 315
320 323 324 325 325 324 323 323 322 323 323 322 321 319 319 320 321 321 320 319 320 321 320 323 322 322 323 323 322 322 320 318
319 324 325 325 325 324 323 322 323 322 323 323 322 321 319 318 319 318 317 318 319 320 321 322 322 322 322 323 324 322 320 319
318 322 323 324 324 322 323 322 321 323 323 322 321 321 320 319 318 318 317 317 317 318 319 319 319 319 320 320 320 319 319 317
318 321 323 324 324 322 322 321 320 323 322 322 322 322 321 321 321 320 318 317 317 318 319 319 318 318 318 318 318 318 318 318
316 319 323 324 325 323 321 321 321 322 321 322 322 324 323 320 321 321 321 319 318 317 318 319 318 317 317 317 317 317 318 318
316 318 323 325 326 325 323 321 321 323 323 322 322 322 323 323 322 321 321 321 320 317 317 318 318 317 316 316 316 317 317 318
316 318 323 325 326 326 325 322 321 322 324 323 322 322 323 322 322 323 322 322 321 320 319 318 318 317 316 316 316 317 317 316
316 318 321 323 325 326 325 324 322 322 323 324 324 324 323 323 323 323 324 322 323 321 321 319 319 318 317 316 316 317 316 316
313 313 318 320 324 325 325 325 324 324 323 323 323 323 323 323 323 324 324 324 322 322 322 320 319 318 318 317 316 316 317 317
311 312 313 319 322 324 325 326 326 325 324 323 322 323 323 323 323 324 325 324 323 323 322 322 321 321 320 319 318 317 317 318
311 311 312 314 316 323 324 325 327 326 324 323 321 323 324 324 323 323 323 324 324 324 322 321 321 320 320 319 319 318 317 317
310 312 313 313 315 315 321 324 325 327 325 324 323 323 322 323 323 323 322 322 322 323 322 321 320 320 308 303 312 318 317 317
310 310 312 314 316 318 315 315 323 325 325 325 325 324 322 322 323 323 322 321 321 321 321 321 321 321 303 302 300 317 317 316
310 312 313 316 317 315 316 318 315 318 324 324 325 325 323 323 323 322 321 321 320 320 320 320 320 320 302 299 298 313 317 313

GFSFLT1_sfc_thetae_081.txt.gz
Theta_e
316 318 319 323 322 323 323 324 326 325 323 322 321 322 323 324 324 324 325 325 325 325 324 324 323 320 319 317 316 314 314 315
317 319 318 321 322 321 321 322 323 323 321 319 318 319 321 321 321 321 322 323 323 324 323 323 323 321 317 316 314 313 311 313
317 317 317 320 320 320 319 321 322 323 322 321 320 320 321 321 321 319 322 321 321 320 321 321 320 318 316 314 315 314 312 313
316 317 316 319 319 320 319 320 321 322 323 322 321 321 321 320 320 319 320 320 321 321 320 320 318 319 316 316 316 314 312 313
317 317 315 317 318 321 320 321 320 321 323 321 319 318 316 319 319 318 319 320 320 320 319 319 317 317 316 317 318 316 315 311
317 318 317 318 319 318 319 321 322 322 322 322 320 318 319 319 320 317 317 318 319 317 319 318 317 318 318 318 318 318 318 314
318 320 319 318 318 317 319 319 320 321 322 322 320 319 318 317 317 317 317 317 315 316 319 320 320 319 319 319 320 320 319 317
317 318 318 318 317 317 318 317 317 321 321 322 321 320 319 318 318 317 317 316 315 317 317 319 320 321 320 321 320 320 319 317
317 318 319 319 318 317 318 317 318 318 321 321 321 321 320 319 319 319 318 318 317 317 318 319 320 320 320 319 319 319 318 317
317 318 319 319 317 318 318 317 318 319 319 320 320 319 319 319 320 320 320 319 319 318 316 317 318 318 318 318 317 316 317 317
310 318 319 320 319 318 318 318 318 319 319 320 321 320 320 321 320 319 320 319 317 317 317 317 318 317 317 316 316 316 316 316
309 312 319 320 320 319 318 318 318 318 320 320 320 321 322 323 321 321 321 321 318 316 316 316 316 316 315 314 314 314 315 315
307 310 318 319 320 319 318 318 318 319 320 319 318 319 320 321 321 321 321 321 321 318 317 314 315 316 316 314 313 314 313 314
308 309 310 314 319 320 319 319 317 319 320 319 318 318 318 318 319 320 321 321 321 320 319 317 314 315 315 314 314 313 313 313
307 308 310 312 313 318 321 321 320 319 319 320 319 319 319 319 320 319 320 320 320 319 319 318 318 317 316 315 315 313 313 314
307 308 310 312 314 315 317 318 322 321 320 318 319 320 321 321 320 320 321 321 321 321 320 319 319 318 317 316 316 314 313 313
308 310 312 312 311 310 312 314 317 323 321 320 320 319 320 320 320 320 320 321 321 321 320 319 318 319 308 303 311 315 314 313
309 308 308 307 305 306 306 310 314 316 318 321 321 320 319 320 321 320 319 319 320 320 320 320 319 319 303 302 300 316 315 314
306 305 303 302 301 301 304 309 307 308 308 311 316 321 320 320 319 320 320 320 318 318 319 319 319 319 302 299 298 313 316 315

GFSFLT1_sfc_thetae_084.txt.gz
Theta_e
315 320 323 324 324 325 325 325 324 321 320 321 322 323 324 325 325 325 326 327 326 321 318 319 319 312 314 316 314 314 315 314
316 320 322 322 322 322 322 324 324 322 319 318 318 319 321 322 324 325 326 326 326 323 321 320 320 315 316 316 313 314 312 313
314 318 320 320 321 321 320 322 324 322 321 320 320 320 321 322 322 323 324 324 324 324 321 322 320 320 316 315 312 310 310 311
313 315 318 318 319 319 319 320 323 323 322 321 320 320 320 319 319 319 321 322 322 324 322 321 321 319 316 314 313 313 310 311
314 314 316 317 318 318 318 320 321 322 322 320 318 317 314 317 319 319 320 320 319 320 321 320 320 318 316 315 315 313 312 310
313 314 317 318 318 318 317 320 320 320 322 321 319 318 319 320 317 313 317 318 319 318 319 318 318 321 317 317 315 314 313 312
315 315 317 317 318 318 318 318 318 319 321 321 320 318 318 318 317 315 316 317 317 317 318 318 317 319 319 317 317 316 316 313
314 314 314 315 316 317 318 318 317 319 321 321 320 319 318 318 318 316 314 315 315 316 316 318 317 318 319 318 318 317 317 315
315 315 314 315 315 316 317 317 317 318 320 320 320 320 319 319 319 318 316 315 317 318 317 318 319 319 319 319 318 318 318 317
315 316 316 316 316 316 317 316 317 318 318 320 321 321 320 319 319 320 319 317 317 317 317 318 319 319 320 320 319 318 319 318
316 317 317 317 317 316 317 317 316 317 318 320 321 321 321 320 320 319 319 319 317 317 316 317 318 318 319 318 319 319 318 318
312 317 318 318 318 317 316 316 317 316 317 318 319 320 320 320 319 318 320 320 319 317 317 315 316 316 316 316 318 317 316 317
309 314 316 317 316 317 317 317 316 318 318 318 318 319 319 319 319 320 320 320 320 318 317 316 314 315 316 315 315 316 314 314
309 310 311 314 317 317 316 316 317 317 319 318 318 318 319 319 320 321 321 320 320 319 317 316 315 315 314 315 315 314 313 312
309 310 310 310 312 315 317 317 317 317 318 318 317 317 318 318 319 319 320 321 320 320 319 317 315 314 315 315 314 313 312 313
309 308 306 306 306 307 309 312 317 318 317 318 318 318 318 318 318 318 319 319 319 319 319 318 318 316 314 313 314 313 312 312
305 304 303 302 302 303 306 308 310 315 316 318 319 319 319 318 318 318 318 318 318 318 318 317 317 317 307 301 309 313 312 311
301 300 299 298 298 299 302 304 305 306 306 309 314 314 318 319 319 319 318 317 318 318 318 318 317 317 303 301 299 314 314 313
298 297 295 295 295 296 299 299 300 300 301 303 305 306 306 309 311 319 319 319 318 318 318 319 319 319 302 300 298 312 315 315

GFSFLT1_sfc_thetae_087.txt.gz
Theta_e
311 321 324 324 324 325 324 319 317 318 320 322 322 324 324 327 326 327 328 326 323 319 318 317 316 312 314 313 312 312 312 314
312 321 323 324 325 324 322 321 319 318 318 318 319 319 322 323 325 326 327 326 322 318 318 316 315 312 314 314 312 311 310 312
313 319 322 323 323 322 322 321 319 318 319 318 319 320 321 322 323 325 326 326 322 319 319 316 315 312 315 313 312 310 310 311
313 317 319 321 321 320 320 321 321 319 319 320 320 318 320 319 319 322 322 325 324 321 320 318 317 313 315 314 313 311 309 310
313 316 317 319 321 321 320 321 320 321 320 318 318 316 316 318 319 320 321 321 323 322 320 320 319 318 315 315 314 314 312 310
311 315 317 318 321 319 318 319 320 320 320 320 319 318 317 318 319 318 319 319 320 322 321 320 320 319 317 315 313 312 312 311
312 315 317 317 318 318 317 318 320 320 319 320 319 318 317 316 316 316 317 318 318 318 320 319 319 319 316 316 315 313 312 312
311 311 314 316 316 316 318 317 316 319 321 320 319 319 318 317 316 315 316 316 316 316 316 318 318 319 319 317 317 315 314 312
311 312 314 315 316 317 317 316 316 316 318 319 320 320 319 317 317 316 314 315 316 315 314 317 317 318 319 318 317 317 317 315
310 313 314 315 316 316 317 316 316 316 316 318 319 320 319 318 317 317 315 314 316 317 317 316 317 317 317 318 318 316 317 316
311 312 314 316 317 316 317 317 316 316 317 319 319 319 320 320 319 317 317 315 314 314 314 316 317 318 318 318 317 318 317 317
312 313 314 315 316 316 316 316 316 316 317 318 318 318 320 320 319 319 319 318 316 314 315 315 315 317 318 318 318 318 316 316
312 314 314 314 314 315 315 315 315 315 317 317 317 318 319 319 319 320 320 319 319 317 315 315 314 315 316 316 316 317 315 316
308 309 312 314 314 315 316 316 315 317 317 316 316 316 317 318 319 319 319 319 319 319 318 316 315 314 314 314 315 315 314 315
304 304 305 307 309 311 313 315 317 317 318 317 316 316 317 318 318 319 319 319 319 319 319 318 317 316 314 313 314 314 314 314
301 300 301 302 304 306 306 307 309 315 317 318 317 318 318 319 319 319 319 319 319 319 318 318 317 316 316 315 314 313 312 313
298 298 297 297 298 300 301 302 303 306 308 311 316 318 318 318 318 318 318 319 318 318 317 317 316 315 305 301 309 313 313 312
295 294 294 294 295 297 296 297 298 298 299 302 302 304 305 307 312 317 317 317 317 317 318 318 317 317 304 300 299 313 313 312
293 292 292 292 294 294 294 294 295 294 294 294 296 297 298 301 303 302 304 309 317 317 317 317 318 318 304 302 299 310 312 313

GFSFLT1_sfc_thetae_090.txt.gz
Theta_e
301 313 319 322 323 326 324 321 319 319 319 320 322 324 325 327 327 328 327 325 324 322 320 317 318 317 316 314 313 314 315 315
300 310 320 321 324 324 323 319 318 318 318 317 318 319 322 324 326 327 327 325 321 319 318 316 315 315 314 313 311 312 311 314
308 316 319 321 323 324 323 320 317 317 318 318 316 321 322 323 324 325 327 324 321 319 317 316 313 313 314 312 312 310 310 314
309 316 318 322 322 323 322 321 319 318 318 318 318 320 320 319 321 323 325 323 321 320 318 316 313 313 313 313 311 310 311 311
309 315 319 320 322 323 322 321 319 318 319 318 317 316 315 318 320 321 322 322 320 320 318 316 314 313 314 314 314 311 312 309
308 314 317 320 322 321 321 321 320 319 318 318 316 315 314 319 319 319 319 321 320 320 318 316 316 315 315 315 313 312 313 312
307 314 317 320 322 320 319 319 319 319 318 318 316 316 314 317 317 317 318 318 320 320 320 318 316 315 315 315 315 313 313 313
304 311 314 317 319 317 318 317 317 318 318 317 317 317 317 316 317 317 317 317 317 319 319 318 317 313 313 316 315 314 313 312
305 311 314 316 318 316 316 316 316 318 317 317 317 316 317 318 317 317 316 317 318 318 319 319 318 318 317 317 316 315 314 313
302 311 314 315 316 316 316 316 316 317 318 317 317 318 316 318 317 317 317 314 317 316 316 317 317 317 319 316 316 316 316 314
302 311 314 315 316 317 317 317 316 315 316 317 318 318 317 318 317 315 313 313 314 314 314 314 315 315 317 318 317 317 316 317
310 312 315 315 317 316 316 316 316 316 316 317 317 318 317 319 318 315 314 313 313 313 314 314 314 315 316 315 316 317 315 316
312 312 313 313 314 315 315 316 315 316 317 317 316 317 317 318 318 318 318 316 314 314 313 313 314 314 315 315 314 315 314 314
305 307 311 312 313 314 314 315 315 316 317 316 316 316 315 316 318 319 319 319 318 316 314 313 313 313 315 316 316 315 315 315
300 300 302 305 307 309 310 312 317 316 316 315 315 316 315 315 316 318 319 319 318 318 318 316 315 314 313 314 314 314 314 314
295 295 297 299 301 303 305 306 309 318 318 317 316 316 316 317 316 317 318 318 317 317 317 317 317 316 315 313 314 314 313 313
294 293 294 294 295 296 297 298 299 303 304 304 304 306 314 315 317 318 318 317 318 318 317 316 315 316 305 301 308 313 313 312
292 291 291 292 293 294 294 295 295 295 296 297 298 300 301 302 304 304 305 309 316 318 318 318 317 317 302 301 298 313 314 313
290 289 289 290 293 293 293 293 292 291 291 290 291 293 295 296 296 297 298 300 302 305 307 314 317 318 296 297 297 309 313 314

GFSFLT1_sfc_thetae_093.txt.gz
Theta_e
310 310 317 324 329 331 332 328 326 327 327 325 327 329 329 330 329 329 329 327 327 328 325 324 324 321 320 322 321 322 322 322
310 311 312 322 327 329 330 324 323 323 320 320 322 323 325 328 329 331 328 325 323 321 322 322 324 322 321 322 320 321 320 322
309 312 316 322 325 328 327 322 322 322 322 323 323 322 324 326 327 327 326 323 322 322 322 321 322 320 317 318 321 319 320 320
308 314 319 323 324 327 325 323 322 322 322 322 323 324 323 323 325 326 325 323 322 321 322 320 320 320 317 319 320 320 315 319
308 312 319 322 324 328 325 323 322 322 321 320 322 319 318 322 323 324 324 323 322 320 318 316 316 318 317 317 318 320 320 316
308 311 318 323 326 327 325 323 322 320 320 320 320 319 320 323 323 322 323 323 322 320 318 316 314 316 316 315 316 319 320 320
308 311 319 322 326 326 324 323 321 321 319 320 321 318 318 322 321 320 320 319 320 319 318 317 315 314 316 316 316 316 318 321
310 308 317 321 323 322 323 322 319 319 319 319 319 318 320 322 321 320 320 318 318 318 318 317 315 314 314 314 316 315 317 317
313 310 315 320 323 321 321 320 319 319 319 319 319 319 322 323 322 321 321 319 319 320 319 317 315 314 313 313 317 315 317 317
312 315 315 320 322 322 320 319 319 319 319 319 318 320 322 322 321 321 320 321 320 320 320 318 316 314 314 312 316 315 315 318
313 314 313 319 322 321 319 319 319 318 319 319 319 320 320 322 322 321 319 319 321 320 318 319 319 316 313 312 316 318 316 316
312 315 316 319 321 318 317 319 318 321 320 320 322 320 320 321 320 320 318 320 321 322 322 319 318 319 320 318 319 318 316 316
305 313 316 317 317 317 317 318 317 319 320 319 319 321 319 320 321 320 321 322 322 322 322 321 321 322 322 321 320 318 317 316
299 302 303 311 314 315 316 316 316 318 318 318 318 318 318 319 322 321 321 321 321 320 321 319 320 320 320 320 318 318 318 319
296 296 297 298 300 303 306 313 317 318 318 318 317 317 318 320 322 322 322 321 321 318 318 319 320 319 320 319 318 318 318 318
293 293 294 294 295 297 298 301 306 317 316 316 317 319 320 321 322 322 322 322 322 322 321 320 319 319 318 318 319 319 319 318
291 291 292 293 293 294 295 295 297 299 300 300 303 305 305 306 308 315 318 318 319 319 320 321 321 320 305 301 310 319 318 318
289 289 289 290 293 294 293 293 293 292 292 293 295 297 298 299 301 302 301 302 306 308 311 314 317 306 289 292 296 314 315 314
287 287 287 288 291 293 293 291 291 289 289 289 291 292 292 294 295 296 296 299 301 301 295 294 297 290 288 289 288 300 311 315

GFSFLT1_sfc_thetae_096.txt.gz
Theta_e
316 318 319 323 328 334 337 339 336 334 334 333 332 333 331 334 335 334 334 334 331 329 329 327 324 321 321 323 327 329 330 327
316 318 319 319 324 330 335 337 334 331 329 328 328 328 329 331 335 333 333 330 328 328 327 325 323 321 320 323 327 327 326 328
315 317 319 320 323 329 333 336 331 331 333 333 330 328 329 331 332 331 332 329 324 326 326 324 323 321 320 322 327 325 324 326
311 313 317 321 325 328 331 335 329 330 335 333 329 329 328 328 329 328 324 323 323 323 324 324 323 322 321 325 327 325 322 324
315 314 315 318 325 329 331 333 326 329 333 331 330 326 323 326 325 329 326 326 323 323 321 322 322 324 325 324 326 328 325 321
316 316 316 317 325 329 332 329 326 327 329 333 329 328 326 326 327 328 327 325 325 321 322 323 324 324 324 327 327 328 326 325
317 320 318 317 324 330 331 325 324 326 329 330 330 328 325 324 325 326 322 322 321 321 319 319 321 323 322 322 321 321 321 324
316 317 320 318 324 329 328 323 322 324 326 328 327 327 325 326 324 324 322 321 320 318 318 317 317 318 318 318 318 317 319 320
314 316 320 319 323 328 325 323 324 324 325 325 324 327 321 326 325 325 324 322 321 320 319 318 317 318 318 318 317 317 319 320
311 311 321 322 322 327 325 323 325 322 324 324 323 325 323 324 327 328 327 325 322 320 319 318 317 315 315 314 313 316 318 318
305 305 320 320 323 327 325 324 323 321 322 323 322 321 322 325 328 324 324 327 323 321 320 318 316 315 315 316 313 313 315 317
299 301 313 321 324 324 322 321 321 320 322 322 322 321 322 324 325 324 324 323 323 322 321 318 315 315 314 313 313 313 314 318
297 298 303 316 320 318 319 321 319 320 321 321 321 321 321 322 322 324 324 322 322 323 323 319 318 316 315 313 313 314 315 317
294 296 297 300 303 315 318 319 319 322 321 322 321 320 321 320 321 326 325 325 324 324 324 322 321 320 318 318 318 318 319 319
291 291 294 296 298 299 301 310 318 319 319 320 319 319 319 320 323 324 322 323 323 324 324 325 324 323 323 324 323 324 323 320
289 289 290 294 294 295 297 297 300 310 312 312 316 319 320 320 323 323 323 323 322 322 321 321 322 322 320 321 321 320 319 319
289 288 288 292 292 293 293 293 295 296 296 297 300 302 304 305 307 307 313 314 318 321 321 322 321 302 290 291 301 321 320 320
286 286 286 290 292 291 290 291 293 292 293 293 293 295 297 298 300 300 301 303 305 301 300 296 292 291 289 289 289 306 317 320
285 285 286 287 290 291 290 290 290 292 291 290 292 292 292 294 295 296 299 299 295 293 293 294 291 288 287 288 288 300 305 309

GFSFLT1_sfc_thetae_099.txt.gz
Theta_e
316 317 319 321 325 329 335 341 343 340 338 338 335 335 335 337 338 335 335 337 336 336 336 332 332 330 330 327 328 327 328 326
318 319 320 321 323 327 333 339 342 338 334 332 332 332 332 335 334 336 336 336 336 334 330 327 326 324 324 326 328 324 324 329
316 318 320 321 321 322 328 334 339 338 333 334 335 333 333 336 335 334 335 335 335 331 328 326 324 323 322 323 324 324 327 327
314 315 318 320 321 323 324 330 336 338 336 336 336 335 332 332 331 333 334 334 334 329 326 325 323 323 321 322 324 323 322 326
316 317 318 320 321 324 327 329 334 336 338 336 334 330 327 329 331 330 331 330 325 325 325 325 323 322 321 323 326 324 325 322
317 318 320 321 321 324 329 330 333 334 337 337 334 332 331 330 329 328 327 325 325 323 323 323 322 322 322 323 324 326 327 324
317 319 321 322 322 324 329 330 334 333 333 336 334 333 331 327 326 326 327 325 322 322 324 322 322 322 323 324 328 327 326 325
314 316 318 321 324 321 327 331 330 330 329 334 335 334 331 328 327 325 324 322 321 321 321 321 322 323 323 324 324 324 327 326
312 313 316 319 324 323 327 330 327 326 327 333 334 334 330 328 327 326 326 322 322 321 320 319 319 321 322 321 320 319 320 320
309 311 311 317 319 325 328 328 324 324 326 332 333 332 330 327 328 328 327 326 324 323 320 317 318 318 318 318 318 318 319 319
306 306 305 311 314 324 330 327 325 325 325 327 329 331 328 328 328 326 327 328 324 322 321 318 317 318 319 318 317 318 317 319
302 299 299 304 308 325 329 325 324 323 324 324 326 328 327 327 327 327 325 327 325 322 320 319 316 315 315 314 315 315 315 316
298 294 295 297 299 311 323 323 322 323 322 323 323 325 325 324 325 326 327 326 326 325 323 319 317 315 315 314 314 313 312 312
295 292 291 294 295 298 306 321 320 322 322 321 322 322 322 323 324 326 325 324 324 325 324 320 318 317 316 316 315 315 316 316
295 290 290 293 293 294 297 301 310 320 320 320 322 321 322 322 324 325 325 324 324 324 325 324 322 321 319 317 316 316 318 320
291 290 289 289 291 291 293 295 297 302 304 307 313 320 321 322 321 324 324 324 324 325 325 325 324 322 307 308 318 318 320 318
288 288 288 288 290 290 290 292 294 295 295 296 301 303 303 304 307 309 319 318 316 315 309 317 300 295 289 290 295 319 321 320
286 286 285 288 288 289 288 289 292 292 292 293 294 297 298 298 301 301 300 299 299 299 295 293 290 290 288 289 289 307 319 316
287 285 285 285 288 289 288 290 289 290 289 290 292 293 293 295 296 295 293 293 291 292 291 290 288 287 287 288 289 302 296 291

GFSFLT1_sfc_thetae_102.txt.gz
Theta_e
315 315 316 317 319 326 342 342 339 338 338 340 338 338 336 336 336 335 335 337 336 335 333 332 331 331 330 329 327 327 326 325
316 318 317 321 322 327 336 341 341 337 334 333 332 332 332 332 335 335 334 334 333 333 331 330 331 329 328 329 327 325 323 325
316 318 319 320 322 323 327 338 341 339 335 334 332 331 332 332 332 334 334 333 333 332 330 328 329 327 327 327 325 323 323 324
314 317 319 322 324 325 322 330 339 339 336 334 333 333 332 330 332 331 332 332 332 331 329 327 326 325 324 324 324 322 320 322
315 317 318 321 322 325 324 323 330 339 335 332 331 329 327 329 330 330 331 331 331 330 328 327 325 325 323 324 325 323 322 318
315 316 318 320 323 324 325 324 325 337 334 334 332 331 330 330 329 329 328 328 327 325 325 325 323 324 323 323 323 323 323 320
314 316 317 318 321 323 326 327 325 336 335 334 333 332 329 328 327 326 325 323 325 323 323 323 325 323 322 322 323 323 323 322
311 311 312 314 316 320 323 324 325 334 334 334 334 333 332 329 325 325 323 321 320 321 322 321 321 322 322 324 324 323 323 322
308 308 309 308 312 314 320 317 326 332 331 332 334 333 332 328 325 327 325 322 320 321 322 322 322 322 323 323 324 323 323 322
305 304 302 302 306 308 311 313 326 328 328 329 332 332 331 327 326 327 325 323 322 321 321 320 320 322 321 320 318 318 319 319
301 299 297 299 300 304 309 319 327 325 326 327 328 330 330 328 326 326 325 323 322 320 319 319 319 319 319 319 318 318 318 318
297 295 295 296 297 299 302 324 325 324 325 325 325 327 326 327 325 326 325 325 323 321 319 318 317 318 318 318 318 318 317 317
295 293 293 293 293 295 297 300 322 324 324 323 323 324 325 325 325 325 326 324 322 321 320 318 317 317 317 317 316 316 316 316
293 292 291 291 291 292 293 296 299 320 322 322 321 321 322 322 324 325 325 324 323 321 320 318 316 316 315 315 315 313 314 315
290 290 290 291 290 290 291 293 296 300 320 320 319 319 320 321 324 324 323 323 323 322 321 319 318 316 316 316 315 315 313 313
288 288 288 289 290 289 290 291 293 295 297 300 304 313 320 321 321 323 323 322 322 322 322 320 318 312 300 307 315 315 315 314
287 287 287 287 288 289 289 289 291 292 292 293 296 300 302 305 307 311 310 308 307 304 304 300 296 292 289 290 296 314 315 316
286 285 286 287 287 287 287 288 290 290 290 291 292 294 295 297 297 297 297 298 296 294 293 291 289 289 289 290 290 307 301 298
287 285 285 286 286 286 287 288 288 288 288 289 291 291 292 292 292 291 290 291 291 290 289 288 288 288 288 290 292 294 290 288

GFSFLT1_sfc_thetae_105.txt.gz
Theta_e
309 309 307 307 307 337 338 337 335 335 336 334 333 332 330 330 333 334 334 334 333 330 328 328 327 328 327 328 325 325 324 323
310 307 306 306 307 335 337 335 334 333 333 330 331 329 328 327 329 332 333 333 332 331 329 327 326 326 326 326 325 322 321 323
309 308 306 307 310 329 336 335 333 333 333 333 330 332 330 331 328 328 330 331 331 330 328 327 326 327 326 326 325 323 323 324
308 310 310 311 312 314 333 336 333 333 332 332 328 328 329 328 329 328 327 328 329 328 326 326 327 328 327 327 326 324 320 323
311 311 311 312 314 317 316 334 335 333 332 330 327 326 325 327 328 328 326 328 326 328 326 325 327 327 326 326 326 324 323 320
307 308 310 311 312 314 316 318 326 334 331 330 328 326 326 326 327 328 325 324 326 326 328 326 325 325 325 325 325 324 323 321
305 306 306 305 307 309 311 313 317 328 331 330 328 326 326 324 325 323 322 323 322 324 324 324 325 324 324 324 325 324 322 322
301 300 300 300 301 304 306 307 310 313 330 329 329 328 327 325 324 323 322 322 321 321 321 321 321 323 323 324 324 323 323 321
297 297 297 297 299 300 300 302 304 309 326 329 329 329 327 327 325 324 322 321 320 320 320 320 321 323 322 323 323 322 323 322
294 294 294 295 297 298 298 299 301 307 314 330 328 327 329 325 323 323 322 321 319 320 320 319 321 321 322 322 322 322 322 322
293 292 293 295 295 296 297 299 304 311 325 324 325 325 326 325 325 323 321 320 320 320 320 319 320 320 321 320 320 322 321 321
292 292 293 294 294 294 294 297 300 311 320 320 320 322 324 324 324 322 320 320 320 320 319 318 318 318 318 319 318 319 319 319
291 291 292 292 292 293 292 294 296 300 308 320 320 321 323 323 323 323 321 320 321 320 319 318 317 317 317 317 317 318 317 317
290 290 289 290 291 291 292 293 294 297 301 320 320 320 321 323 323 323 322 321 320 321 319 318 317 317 317 317 317 317 317 317
288 287 288 289 290 290 291 291 293 294 297 300 305 319 320 322 323 323 323 322 320 320 319 318 317 317 317 317 316 316 316 316
287 286 287 287 288 288 290 290 291 292 293 293 297 302 310 312 314 322 322 322 321 320 319 318 316 313 307 315 315 315 313 313
286 286 286 286 286 287 287 288 289 290 291 292 293 295 296 298 300 301 305 303 302 300 299 298 296 293 290 291 302 315 314 314
285 285 285 286 286 286 286 286 288 289 288 289 291 292 292 293 293 292 292 293 293 291 291 290 290 290 290 291 292 305 301 298
285 285 285 286 287 286 286 286 286 287 287 287 288 291 291 290 291 291 288 289 288 287 287 288 289 291 290 290 290 290 288 288

GFSFLT1_sfc_thetae_108.txt.gz
Theta_e
304 305 304 306 311 334 336 336 335 337 335 333 331 331 331 333 332 331 333 333 331 330 329 328 328 327 328 328 328 327 324 324
306 307 305 304 306 330 334 334 334 335 333 331 329 329 328 330 332 332 332 333 331 330 328 327 326 326 327 327 326 324 322 324
306 306 306 307 307 327 333 334 333 334 336 335 332 332 329 329 330 332 332 331 331 331 328 327 325 324 324 325 325 322 322 324
309 309 309 311 312 316 330 331 332 334 335 333 327 326 326 325 326 327 329 331 330 330 329 328 325 326 325 326 325 323 320 323
305 304 304 305 307 311 313 329 332 332 329 331 328 328 325 328 328 327 328 329 328 328 326 326 325 327 327 327 327 325 321 319
299 299 300 301 302 304 308 309 317 322 329 330 328 328 328 324 325 325 327 327 327 328 325 325 325 327 327 326 325 325 323 322
296 297 298 298 300 300 303 303 306 310 316 330 329 327 324 323 324 324 325 326 326 327 326 326 326 325 324 325 325 325 324 323
292 292 293 295 296 297 300 299 301 304 305 316 329 327 325 324 324 324 323 323 324 325 326 325 324 325 324 325 324 325 324 323
291 291 292 293 295 295 296 297 299 302 303 308 326 329 326 326 325 325 323 323 323 323 323 322 321 322 323 324 323 324 324 322
291 292 292 292 293 293 294 296 297 300 304 306 317 330 326 326 325 324 323 323 321 319 321 320 319 320 321 322 322 322 322 322
290 291 291 292 292 293 294 296 295 299 303 310 319 329 327 326 324 322 322 321 320 318 318 318 319 320 320 321 321 322 321 322
290 290 291 291 292 293 293 294 294 296 301 313 323 324 322 322 323 323 322 321 319 317 318 319 319 319 320 319 320 321 320 320
289 289 289 290 290 291 292 293 293 296 299 304 320 321 321 321 322 321 321 319 319 318 318 318 318 318 318 318 318 319 320 319
288 288 288 288 289 289 289 292 292 294 296 298 302 305 319 319 321 320 321 319 319 319 319 318 317 317 317 317 318 318 318 319
287 286 287 287 288 288 289 289 292 292 294 295 295 297 303 316 321 321 320 320 319 319 319 319 318 318 317 317 317 317 317 316
285 285 286 286 286 287 288 288 289 291 290 291 292 294 296 299 307 322 321 320 320 320 318 318 316 315 304 313 317 316 316 316
284 285 285 285 286 286 286 287 287 289 289 289 290 292 292 294 295 298 300 300 300 299 298 297 296 295 290 292 298 315 314 314
282 283 284 285 285 286 285 286 287 286 286 288 289 289 289 290 291 290 291 292 294 291 291 293 292 292 291 292 294 303 298 297
282 282 284 285 286 286 285 285 285 285 285 285 286 288 287 288 287 286 286 287 287 287 288 289 289 289 289 289 289 290 289 288